CAL6 RCTP-KLAX

Flight info

Callsign CAL6
Flight time 10h 51m
Altitude 31000
Route MOLKA1A MOLKA M750 MIDAI/N0492F330 M750 MUKEP Y891 OVSUN/N0493F320 Y893 IGMIS/N0492F330 Y57 POROT Y809 IDLAN Y812 ADNAP OTR7 EMRON DCT 42N160E 43N170E/N0481F350 45N180E 45N170W 45N160W 44N150W 42N140W/N0471F370 39N130W DCT DACEM DCT PIRAT DCT BSR DCT MCKEY LEENA8
Aircraft B77W/H-SDE1E2E3FGHIJ2J3J4J5M1RWXY/LB1D1

Departure

Time 2026-04-23 05:59
Airport Taiwan Taoyuan International Airport (RCTP)

Arrival

Time 2026-04-23 16:50
Airport Los Angeles International Airport (KLAX)
Time Latitude Longitude Altitude Speed Heading
2026-04-23 05:24 25.07642 121.23496 105 ft 0 kts 319°
2026-04-23 05:45 25.07638 121.23500 105 ft 4 kts 319°
2026-04-23 05:45 25.07618 121.23520 105 ft 4 kts 319°
2026-04-23 05:45 25.07598 121.23539 105 ft 4 kts 314°
2026-04-23 05:46 25.07582 121.23562 106 ft 4 kts 295°
2026-04-23 05:46 25.07575 121.23590 105 ft 4 kts 263°
2026-04-23 05:46 25.07581 121.23611 105 ft 0 kts 229°
2026-04-23 05:51 25.07561 121.23584 105 ft 7 kts 229°
2026-04-23 05:52 25.07530 121.23544 107 ft 7 kts 229°
2026-04-23 05:52 25.07498 121.23504 106 ft 7 kts 229°
2026-04-23 05:52 25.07466 121.23462 106 ft 8 kts 230°
2026-04-23 05:52 25.07410 121.23392 107 ft 16 kts 229°
2026-04-23 05:53 25.07336 121.23296 106 ft 16 kts 229°
2026-04-23 05:53 25.07260 121.23201 105 ft 16 kts 220°
2026-04-23 05:53 25.07158 121.23231 106 ft 17 kts 142°
2026-04-23 05:53 25.07057 121.23265 104 ft 17 kts 213°
2026-04-23 05:54 25.06981 121.23172 107 ft 17 kts 229°
2026-04-23 05:54 25.06905 121.23076 106 ft 17 kts 229°
2026-04-23 05:54 25.06830 121.22980 104 ft 17 kts 229°
2026-04-23 05:54 25.06755 121.22884 104 ft 17 kts 229°
2026-04-23 05:55 25.06679 121.22788 106 ft 17 kts 228°
2026-04-23 05:55 25.06603 121.22693 105 ft 17 kts 229°
2026-04-23 05:55 25.06527 121.22597 105 ft 17 kts 229°
2026-04-23 05:55 25.06452 121.22501 106 ft 17 kts 229°
2026-04-23 05:56 25.06377 121.22406 105 ft 17 kts 229°
2026-04-23 05:56 25.06302 121.22310 105 ft 17 kts 229°
2026-04-23 05:56 25.06209 121.22256 106 ft 12 kts 159°
2026-04-23 05:56 25.06178 121.22279 103 ft 0 kts 140°
2026-04-23 05:57 25.06172 121.22284 103 ft 2 kts 140°
2026-04-23 05:57 25.06133 121.22320 104 ft 10 kts 140°
2026-04-23 05:57 25.06110 121.22385 101 ft 10 kts 70°
2026-04-23 05:57 25.06136 121.22422 101 ft 0 kts 49°
2026-04-23 05:58 25.06156 121.22448 100 ft 17 kts 49°
2026-04-23 05:58 25.06381 121.22731 98 ft 90 kts 49°
2026-04-23 05:58 25.06968 121.23470 101 ft 165 kts 49°
2026-04-23 05:58 25.07852 121.24603 171 ft 216 kts 47°
2026-04-23 05:59 25.08823 121.25845 831 ft 220 kts 46°
2026-04-23 05:59 25.09849 121.27186 1360 ft 234 kts 46°
2026-04-23 05:59 25.10923 121.28603 1885 ft 251 kts 47°
2026-04-23 05:59 25.12073 121.30100 2495 ft 255 kts 46°
2026-04-23 06:00 25.13292 121.31524 3284 ft 257 kts 45°
2026-04-23 06:00 25.14567 121.32961 3889 ft 266 kts 44°
2026-04-23 06:00 25.15871 121.34428 4478 ft 277 kts 44°
2026-04-23 06:00 25.17234 121.35966 5130 ft 284 kts 44°
2026-04-23 06:01 25.18627 121.37557 5806 ft 291 kts 44°
2026-04-23 06:01 25.20042 121.39184 6467 ft 297 kts 44°
2026-04-23 06:01 25.21481 121.40840 7136 ft 301 kts 44°
2026-04-23 06:01 25.22939 121.42520 7838 ft 304 kts 45°
2026-04-23 06:02 25.24408 121.44212 8585 ft 307 kts 45°
2026-04-23 06:02 25.25890 121.45927 9252 ft 310 kts 44°
2026-04-23 06:02 25.27396 121.47659 9874 ft 315 kts 44°
2026-04-23 06:02 25.28802 121.49494 10321 ft 323 kts 60°
2026-04-23 06:03 25.29465 121.51908 10454 ft 340 kts 91°
2026-04-23 06:03 25.29123 121.54522 10613 ft 351 kts 104°
2026-04-23 06:03 25.29018 121.57264 10733 ft 371 kts 80°
2026-04-23 06:03 25.29696 121.60096 10888 ft 392 kts 73°
2026-04-23 06:04 25.30493 121.63045 11170 ft 407 kts 74°
2026-04-23 06:04 25.31239 121.66102 11674 ft 417 kts 76°
2026-04-23 06:04 25.31933 121.69235 12288 ft 422 kts 77°
2026-04-23 06:04 25.32590 121.72414 12959 ft 426 kts 78°
2026-04-23 06:05 25.33217 121.75581 13627 ft 429 kts 78°
2026-04-23 06:05 25.33847 121.78822 14258 ft 433 kts 78°
2026-04-23 06:05 25.34478 121.82098 14841 ft 438 kts 78°
2026-04-23 06:05 25.35114 121.85411 15465 ft 442 kts 78°
2026-04-23 06:06 25.35758 121.88746 16048 ft 447 kts 78°
2026-04-23 06:06 25.36412 121.92134 16424 ft 456 kts 78°
2026-04-23 06:06 25.37077 121.95587 16890 ft 462 kts 78°
2026-04-23 06:06 25.37748 121.99068 17529 ft 463 kts 78°
2026-04-23 06:07 25.38421 122.02558 18130 ft 465 kts 78°
2026-04-23 06:07 25.39087 122.06021 18651 ft 469 kts 78°
2026-04-23 06:07 25.39770 122.09565 19122 ft 474 kts 78°
2026-04-23 06:07 25.40458 122.13149 19595 ft 478 kts 78°
2026-04-23 06:08 25.41148 122.16755 20106 ft 481 kts 78°
2026-04-23 06:08 25.41845 122.20388 20584 ft 484 kts 77°
2026-04-23 06:08 25.42728 122.23991 20996 ft 488 kts 71°
2026-04-23 06:08 25.43879 122.27533 21433 ft 491 kts 68°
2026-04-23 06:09 25.45145 122.31048 21891 ft 493 kts 67°
2026-04-23 06:09 25.46418 122.34531 22301 ft 497 kts 67°
2026-04-23 06:09 25.47695 122.38091 22711 ft 500 kts 67°
2026-04-23 06:09 25.48950 122.41694 23085 ft 503 kts 68°
2026-04-23 06:10 25.50187 122.45333 23473 ft 507 kts 68°
2026-04-23 06:10 25.51414 122.48995 23862 ft 509 kts 69°
2026-04-23 06:10 25.52641 122.52683 24247 ft 512 kts 69°
2026-04-23 06:10 25.53872 122.56391 24594 ft 514 kts 69°
2026-04-23 06:11 25.55114 122.60123 24908 ft 518 kts 69°
2026-04-23 06:11 25.56363 122.63873 25230 ft 521 kts 69°
2026-04-23 06:11 25.57603 122.67597 25567 ft 524 kts 69°
2026-04-23 06:11 25.58865 122.71389 25881 ft 526 kts 69°
2026-04-23 06:12 25.60134 122.75203 26173 ft 529 kts 69°
2026-04-23 06:12 25.61406 122.79035 26485 ft 531 kts 69°
2026-04-23 06:12 25.63967 122.86757 27060 ft 537 kts 69°
2026-04-23 06:13 25.65265 122.90644 27356 ft 539 kts 68°
2026-04-23 06:13 25.66562 122.94489 27635 ft 541 kts 68°
2026-04-23 06:13 25.67888 122.98407 27901 ft 544 kts 68°
2026-04-23 06:13 25.69219 123.02339 28172 ft 546 kts 68°
2026-04-23 06:14 25.70552 123.06290 28411 ft 548 kts 68°
2026-04-23 06:14 25.71887 123.10259 28673 ft 550 kts 68°
2026-04-23 06:14 25.72771 123.12891 28889 ft 551 kts 68°
2026-04-23 06:14 25.74105 123.16867 29258 ft 550 kts 68°
2026-04-23 06:15 25.75885 123.22187 29707 ft 550 kts 68°
2026-04-23 06:15 25.76765 123.24818 29932 ft 550 kts 68°
2026-04-23 06:15 25.78525 123.30081 30418 ft 549 kts 68°
2026-04-23 06:15 25.79852 123.34057 30703 ft 550 kts 68°
2026-04-23 06:16 25.82076 123.40721 30784 ft 557 kts 68°
2026-04-23 06:16 25.84779 123.48846 30803 ft 565 kts 68°
2026-04-23 06:17 25.87968 123.56765 30781 ft 558 kts 49°
2026-04-23 06:17 25.91498 123.60815 30784 ft 548 kts 31°
2026-04-23 06:17 25.94735 123.62945 30789 ft 534 kts 18°
2026-04-23 06:18 26.01555 123.66266 30791 ft 539 kts 18°
2026-04-23 06:18 26.08413 123.69745 30785 ft 544 kts 19°
2026-04-23 06:19 26.14130 123.72731 30797 ft 548 kts 19°
2026-04-23 06:19 26.22164 123.76958 30797 ft 551 kts 19°
2026-04-23 06:20 26.27943 123.79994 30793 ft 553 kts 19°
2026-04-23 06:20 26.34914 123.83662 30805 ft 555 kts 19°
2026-04-23 06:21 26.41906 123.87339 30785 ft 556 kts 19°
2026-04-23 06:21 26.48902 123.91023 30799 ft 556 kts 19°
2026-04-23 06:22 26.55844 123.94685 30808 ft 555 kts 19°
2026-04-23 06:22 26.62826 123.98374 30799 ft 554 kts 19°
2026-04-23 06:23 26.66195 124.00516 30792 ft 564 kts 31°
2026-04-23 06:23 26.69049 124.03570 30813 ft 573 kts 46°
2026-04-23 06:23 26.74003 124.10603 30812 ft 577 kts 48°
2026-04-23 06:24 26.78994 124.17584 30816 ft 579 kts 46°
2026-04-23 06:24 26.84152 124.24531 30813 ft 581 kts 46°
2026-04-23 06:25 26.89351 124.31493 30812 ft 584 kts 46°
2026-04-23 06:25 26.94546 124.38497 30809 ft 585 kts 46°
2026-04-23 06:26 26.99714 124.45479 30806 ft 586 kts 46°
2026-04-23 06:26 27.04930 124.52509 30801 ft 586 kts 46°
2026-04-23 06:27 27.10148 124.59548 30809 ft 587 kts 46°
2026-04-23 06:27 27.15368 124.66605 30804 ft 588 kts 46°
2026-04-23 06:28 27.20555 124.73631 30795 ft 588 kts 46°
2026-04-23 06:28 27.25773 124.80709 30820 ft 589 kts 46°
2026-04-23 06:29 27.30994 124.87803 30805 ft 588 kts 46°
2026-04-23 06:29 27.36199 124.94891 30821 ft 588 kts 46°
2026-04-23 06:30 27.41377 125.01939 30786 ft 588 kts 46°
2026-04-23 06:30 27.46607 125.08998 30799 ft 586 kts 46°
2026-04-23 06:31 27.51830 125.16038 30798 ft 586 kts 46°
2026-04-23 06:31 27.57051 125.23092 30814 ft 586 kts 46°
2026-04-23 06:32 27.62234 125.30115 30812 ft 587 kts 47°
2026-04-23 06:32 27.67459 125.37209 30818 ft 588 kts 47°
2026-04-23 06:33 27.72689 125.44323 30811 ft 589 kts 47°
2026-04-23 06:33 27.77919 125.51450 30812 ft 590 kts 47°
2026-04-23 06:34 27.83121 125.58546 30814 ft 591 kts 47°
2026-04-23 06:34 27.88359 125.65706 30814 ft 592 kts 47°
2026-04-23 06:35 27.93596 125.72879 30818 ft 592 kts 47°
2026-04-23 06:35 27.98841 125.80070 30812 ft 593 kts 47°
2026-04-23 06:36 28.04053 125.87233 30815 ft 594 kts 47°
2026-04-23 06:36 28.09296 125.94444 30811 ft 593 kts 47°
2026-04-23 06:37 28.14537 126.01667 30817 ft 593 kts 47°
2026-04-23 06:37 28.19773 126.08896 30814 ft 593 kts 47°
2026-04-23 06:38 28.24969 126.16084 30810 ft 593 kts 47°
2026-04-23 06:38 28.30197 126.23323 30821 ft 593 kts 47°
2026-04-23 06:39 28.35416 126.30568 30817 ft 593 kts 47°
2026-04-23 06:39 28.40630 126.37816 30814 ft 592 kts 47°
2026-04-23 06:40 28.45804 126.45021 30816 ft 592 kts 47°
2026-04-23 06:40 28.51008 126.52283 30820 ft 592 kts 47°
2026-04-23 06:41 28.56211 126.59551 30813 ft 592 kts 47°
2026-04-23 06:41 28.61409 126.66825 30803 ft 593 kts 47°
2026-04-23 06:42 28.66572 126.74067 30802 ft 593 kts 47°
2026-04-23 06:42 28.71766 126.81362 30800 ft 593 kts 47°
2026-04-23 06:43 28.76954 126.88659 30801 ft 593 kts 47°
2026-04-23 06:43 28.82142 126.95973 30808 ft 593 kts 47°
2026-04-23 06:44 28.87334 127.03303 30777 ft 594 kts 47°
2026-04-23 06:44 28.92488 127.10598 30778 ft 594 kts 47°
2026-04-23 06:45 28.97677 127.17948 30776 ft 594 kts 47°
2026-04-23 06:45 29.02860 127.25308 30778 ft 594 kts 47°
2026-04-23 06:46 29.08036 127.32676 30777 ft 595 kts 47°
2026-04-23 06:46 29.13190 127.40005 30777 ft 596 kts 48°
2026-04-23 06:47 29.18372 127.47402 30773 ft 596 kts 48°
2026-04-23 06:47 29.23564 127.54827 30771 ft 598 kts 48°
2026-04-23 06:48 29.28765 127.62278 30768 ft 599 kts 47°
2026-04-23 06:48 29.33944 127.69706 30771 ft 601 kts 47°
2026-04-23 06:49 29.39157 127.77204 30781 ft 601 kts 47°
2026-04-23 06:49 29.44383 127.84722 30773 ft 603 kts 47°
2026-04-23 06:50 29.49609 127.92249 30763 ft 604 kts 48°
2026-04-23 06:50 29.54785 127.99769 30772 ft 605 kts 47°
2026-04-23 06:51 29.60020 128.07332 30769 ft 606 kts 47°
2026-04-23 06:51 29.65268 128.14920 30764 ft 606 kts 47°
2026-04-23 06:52 29.70508 128.22520 30757 ft 607 kts 47°
2026-04-23 06:52 29.75712 128.30085 30758 ft 607 kts 47°
2026-04-23 06:53 29.80942 128.37704 30761 ft 606 kts 47°
2026-04-23 06:53 29.86160 128.45319 30755 ft 606 kts 48°
2026-04-23 06:54 29.91371 128.52938 30758 ft 605 kts 48°
2026-04-23 06:54 29.96571 128.60555 30751 ft 604 kts 48°
2026-04-23 06:55 30.01725 128.68120 30752 ft 603 kts 48°
2026-04-23 06:55 30.06904 128.75739 30747 ft 603 kts 48°
2026-04-23 06:56 30.12076 128.83359 30747 ft 603 kts 48°
2026-04-23 06:56 30.17244 128.90988 30735 ft 603 kts 48°
2026-04-23 06:57 30.22373 128.98571 30730 ft 602 kts 48°
2026-04-23 06:57 30.27523 129.06200 30724 ft 602 kts 48°
2026-04-23 06:58 30.32672 129.13835 30719 ft 601 kts 49°
2026-04-23 06:58 30.37805 129.21464 30720 ft 600 kts 48°
2026-04-23 06:59 30.42886 129.29043 30718 ft 599 kts 49°
2026-04-23 06:59 30.47991 129.36667 30724 ft 598 kts 49°
2026-04-23 07:00 30.53091 129.44293 30715 ft 598 kts 49°
2026-04-23 07:00 30.58187 129.51925 30712 ft 598 kts 49°
2026-04-23 07:01 30.63275 129.59567 30709 ft 598 kts 49°
2026-04-23 07:01 30.68334 129.67176 30793 ft 600 kts 49°
2026-04-23 07:02 30.70882 129.71013 31000 ft 599 kts 49°
2026-04-23 07:02 30.73421 129.74844 31233 ft 598 kts 49°
2026-04-23 07:02 30.75956 129.78670 31439 ft 597 kts 49°
2026-04-23 07:02 30.78484 129.82495 31592 ft 597 kts 49°
2026-04-23 07:03 30.81016 129.86323 31700 ft 597 kts 49°
2026-04-23 07:03 30.83549 129.90157 31833 ft 598 kts 49°
2026-04-23 07:03 30.85959 129.94106 31970 ft 600 kts 54°
2026-04-23 07:03 30.88153 129.98167 32142 ft 601 kts 56°
2026-04-23 07:04 30.90331 130.02317 32309 ft 600 kts 56°
2026-04-23 07:04 30.92485 130.06463 32598 ft 597 kts 56°
2026-04-23 07:04 30.96796 130.14726 32688 ft 597 kts 56°
2026-04-23 07:05 31.01141 130.22959 32693 ft 596 kts 55°
2026-04-23 07:05 31.05464 130.31117 32697 ft 595 kts 55°
2026-04-23 07:06 31.09807 130.39337 32693 ft 595 kts 55°
2026-04-23 07:06 31.14139 130.47571 32696 ft 596 kts 56°
2026-04-23 07:07 31.18471 130.55824 32687 ft 597 kts 55°
2026-04-23 07:07 31.22774 130.64037 32695 ft 597 kts 56°
2026-04-23 07:08 31.27110 130.72329 32697 ft 598 kts 56°
2026-04-23 07:08 31.31444 130.80636 32705 ft 599 kts 56°
2026-04-23 07:09 31.35781 130.88963 32688 ft 599 kts 56°
2026-04-23 07:09 31.40075 130.97235 32686 ft 598 kts 56°
2026-04-23 07:10 31.44385 131.05549 32690 ft 597 kts 56°
2026-04-23 07:10 31.48680 131.13855 32686 ft 595 kts 56°
2026-04-23 07:11 31.52965 131.22155 32675 ft 595 kts 56°
2026-04-23 07:12 31.59342 131.34544 32678 ft 594 kts 56°
2026-04-23 07:12 31.63599 131.42845 32686 ft 594 kts 56°
2026-04-23 07:13 31.67855 131.51164 32670 ft 594 kts 56°
2026-04-23 07:13 31.72100 131.59487 32670 ft 595 kts 57°
2026-04-23 07:14 31.76315 131.67763 32665 ft 594 kts 57°
2026-04-23 07:14 31.80544 131.76088 32663 ft 593 kts 57°
2026-04-23 07:15 31.84760 131.84408 32667 ft 592 kts 57°
2026-04-23 07:15 31.88971 131.92732 32665 ft 592 kts 57°
2026-04-23 07:16 31.93173 132.01058 32677 ft 592 kts 57°
2026-04-23 07:16 31.97342 132.09335 32673 ft 592 kts 57°
2026-04-23 07:17 32.01532 132.17678 32675 ft 591 kts 57°
2026-04-23 07:17 32.05715 132.26021 32684 ft 591 kts 57°
2026-04-23 07:18 32.09893 132.34373 32683 ft 591 kts 57°
2026-04-23 07:18 32.13928 132.42756 32685 ft 592 kts 61°
2026-04-23 07:19 32.17621 132.51451 32696 ft 593 kts 62°
2026-04-23 07:19 32.21256 132.60187 32696 ft 593 kts 62°
2026-04-23 07:20 32.24918 132.68921 32701 ft 593 kts 62°
2026-04-23 07:20 32.28574 132.77587 32680 ft 593 kts 62°
2026-04-23 07:21 32.32256 132.86329 32682 ft 594 kts 62°
2026-04-23 07:21 32.35925 132.95077 32681 ft 594 kts 62°
2026-04-23 07:22 32.39591 133.03837 32687 ft 594 kts 62°
2026-04-23 07:22 32.43226 133.12547 32677 ft 594 kts 62°
2026-04-23 07:23 32.46878 133.21320 32682 ft 594 kts 62°
2026-04-23 07:23 32.50528 133.30111 32685 ft 595 kts 62°
2026-04-23 07:24 32.54178 133.38920 32681 ft 596 kts 62°
2026-04-23 07:24 32.57828 133.47739 32683 ft 596 kts 62°
2026-04-23 07:25 32.61485 133.56495 32685 ft 596 kts 62°
2026-04-23 07:25 32.65150 133.65326 32675 ft 597 kts 62°
2026-04-23 07:26 32.68771 133.74197 32675 ft 597 kts 63°
2026-04-23 07:26 32.72377 133.83079 32686 ft 597 kts 63°
2026-04-23 07:27 32.75960 133.91897 32687 ft 597 kts 63°
2026-04-23 07:27 32.79562 134.00774 32684 ft 596 kts 63°
2026-04-23 07:28 32.82924 134.09783 32675 ft 597 kts 70°
2026-04-23 07:28 32.85300 134.19233 32680 ft 596 kts 74°
2026-04-23 07:29 32.87548 134.28652 32676 ft 596 kts 73°
2026-04-23 07:29 32.89869 134.38106 32686 ft 595 kts 73°
2026-04-23 07:30 32.92219 134.47556 32653 ft 596 kts 73°
2026-04-23 07:30 32.94559 134.57005 32647 ft 595 kts 73°
2026-04-23 07:31 32.96882 134.66457 32637 ft 595 kts 73°
2026-04-23 07:31 32.99177 134.75839 32643 ft 594 kts 74°
2026-04-23 07:32 33.00842 134.85450 32642 ft 592 kts 84°
2026-04-23 07:32 33.01800 134.95177 32646 ft 591 kts 84°
2026-04-23 07:33 33.02813 135.04903 32644 ft 592 kts 83°
2026-04-23 07:33 33.03872 135.14567 32641 ft 592 kts 83°
2026-04-23 07:34 33.04922 135.24306 32635 ft 592 kts 83°
2026-04-23 07:34 33.05948 135.34045 32641 ft 592 kts 83°
2026-04-23 07:35 33.06968 135.43781 32635 ft 592 kts 83°
2026-04-23 07:35 33.07981 135.53512 32622 ft 591 kts 83°
2026-04-23 07:36 33.08981 135.63176 32627 ft 591 kts 84°
2026-04-23 07:36 33.09978 135.72907 32627 ft 591 kts 84°
2026-04-23 07:37 33.10962 135.82638 32634 ft 591 kts 84°
2026-04-23 07:37 33.11939 135.92360 32628 ft 590 kts 84°
2026-04-23 07:38 33.12905 136.02013 32637 ft 590 kts 84°
2026-04-23 07:38 33.13869 136.11724 32633 ft 589 kts 84°
2026-04-23 07:39 33.14823 136.21436 32641 ft 589 kts 84°
2026-04-23 07:39 33.15770 136.31149 32645 ft 589 kts 84°
2026-04-23 07:40 33.16710 136.40868 32650 ft 590 kts 84°
2026-04-23 07:40 33.17637 136.50526 32658 ft 590 kts 84°
2026-04-23 07:41 33.18568 136.60256 32658 ft 590 kts 84°
2026-04-23 07:41 33.19497 136.69991 32666 ft 590 kts 84°
2026-04-23 07:42 33.20419 136.79736 32668 ft 591 kts 84°
2026-04-23 07:42 33.21324 136.89415 32677 ft 591 kts 85°
2026-04-23 07:43 33.22231 136.99168 32691 ft 591 kts 85°
2026-04-23 07:43 33.23223 137.08894 32777 ft 590 kts 81°
2026-04-23 07:44 33.25226 137.18403 32803 ft 591 kts 72°
2026-04-23 07:44 33.27661 137.27727 32800 ft 593 kts 72°
2026-04-23 07:45 33.30069 137.37153 32796 ft 594 kts 73°
2026-04-23 07:45 33.32419 137.46632 32800 ft 596 kts 73°
2026-04-23 07:46 33.34759 137.56137 32796 ft 596 kts 73°
2026-04-23 07:46 33.37084 137.65585 32797 ft 596 kts 74°
2026-04-23 07:47 33.39420 137.75103 32797 ft 596 kts 74°
2026-04-23 07:47 33.41754 137.84620 32807 ft 596 kts 73°
2026-04-23 07:48 33.44785 137.93846 32804 ft 596 kts 63°
2026-04-23 07:48 33.48937 138.02318 32815 ft 593 kts 54°
2026-04-23 07:49 33.53415 138.10643 32805 ft 595 kts 56°
2026-04-23 07:49 33.57751 138.19105 32807 ft 596 kts 57°
2026-04-23 07:50 33.62060 138.27604 32825 ft 596 kts 57°
2026-04-23 07:50 33.66352 138.36040 32841 ft 597 kts 57°
2026-04-23 07:51 33.70678 138.44544 32847 ft 597 kts 57°
2026-04-23 07:51 33.75000 138.53057 32834 ft 597 kts 57°
2026-04-23 07:52 33.79314 138.61574 32831 ft 596 kts 57°
2026-04-23 07:52 33.83620 138.70097 32835 ft 596 kts 57°
2026-04-23 07:53 33.87884 138.78557 32842 ft 595 kts 57°
2026-04-23 07:53 33.92163 138.87069 32843 ft 594 kts 57°
2026-04-23 07:54 33.96434 138.95584 32851 ft 594 kts 57°
2026-04-23 07:54 34.00696 139.04100 32853 ft 593 kts 57°
2026-04-23 07:55 34.04923 139.12566 32849 ft 594 kts 57°
2026-04-23 07:55 34.09178 139.21111 32860 ft 595 kts 58°
2026-04-23 07:56 34.13438 139.29683 32867 ft 596 kts 58°
2026-04-23 07:56 34.17698 139.38268 32864 ft 596 kts 58°
2026-04-23 07:57 34.21953 139.46862 32882 ft 596 kts 58°
2026-04-23 07:57 34.26174 139.55407 32882 ft 596 kts 58°
2026-04-23 07:58 34.30419 139.64023 32878 ft 596 kts 58°
2026-04-23 07:58 34.34653 139.72644 32880 ft 596 kts 58°
2026-04-23 07:59 34.38883 139.81272 32877 ft 596 kts 58°
2026-04-23 07:59 34.43075 139.89845 32880 ft 596 kts 58°
2026-04-23 08:00 34.47289 139.98487 32878 ft 595 kts 58°
2026-04-23 08:00 34.51499 140.07135 32881 ft 596 kts 58°
2026-04-23 08:01 34.55699 140.15793 32879 ft 595 kts 58°
2026-04-23 08:01 34.59866 140.24403 32879 ft 596 kts 58°
2026-04-23 08:02 34.64054 140.33072 32879 ft 596 kts 58°
2026-04-23 08:02 34.68240 140.41759 32879 ft 596 kts 58°
2026-04-23 08:03 34.72388 140.50487 32881 ft 597 kts 59°
2026-04-23 08:03 34.76436 140.59305 32882 ft 597 kts 59°
2026-04-23 08:04 34.80431 140.68084 32882 ft 597 kts 59°
2026-04-23 08:04 34.84466 140.76926 32898 ft 597 kts 59°
2026-04-23 08:05 34.88506 140.85764 32885 ft 598 kts 59°
2026-04-23 08:05 34.92549 140.94623 32888 ft 598 kts 59°
2026-04-23 08:06 34.96556 141.03430 32895 ft 598 kts 59°
2026-04-23 08:06 35.00585 141.12319 32887 ft 599 kts 59°
2026-04-23 08:07 35.04612 141.21226 32887 ft 600 kts 59°
2026-04-23 08:07 35.08636 141.30147 32885 ft 600 kts 60°
2026-04-23 08:08 35.12659 141.39084 32900 ft 601 kts 60°
2026-04-23 08:08 35.16648 141.47973 32884 ft 601 kts 60°
2026-04-23 08:09 35.20664 141.56941 32890 ft 601 kts 59°
2026-04-23 08:09 35.24672 141.65918 32884 ft 602 kts 59°
2026-04-23 08:10 35.28672 141.74910 32885 ft 601 kts 60°
2026-04-23 08:10 35.34641 141.88362 32887 ft 603 kts 60°
2026-04-23 08:11 35.38638 141.97397 32884 ft 604 kts 60°
2026-04-23 08:11 35.42634 142.06451 32894 ft 604 kts 60°
2026-04-23 08:12 35.46626 142.15526 32885 ft 605 kts 60°
2026-04-23 08:12 35.50587 142.24557 32887 ft 605 kts 60°
2026-04-23 08:13 35.54571 142.33668 32904 ft 606 kts 60°
2026-04-23 08:13 35.58552 142.42791 32898 ft 606 kts 60°
2026-04-23 08:14 35.62524 142.51916 32882 ft 605 kts 60°
2026-04-23 08:14 35.66460 142.60981 32903 ft 605 kts 60°
2026-04-23 08:15 35.70411 142.70112 32883 ft 604 kts 60°
2026-04-23 08:15 35.74357 142.79246 32883 ft 604 kts 60°
2026-04-23 08:16 35.78284 142.88381 32903 ft 603 kts 60°
2026-04-23 08:16 35.82176 142.97453 32882 ft 603 kts 60°
2026-04-23 08:17 35.86085 143.06581 32904 ft 602 kts 60°
2026-04-23 08:17 35.89949 143.15731 32881 ft 602 kts 64°
2026-04-23 08:18 35.92832 143.25419 32900 ft 603 kts 75°
2026-04-23 08:18 35.94447 143.35475 32885 ft 600 kts 85°
2026-04-23 08:19 35.95341 143.45712 32885 ft 600 kts 85°
2026-04-23 08:19 35.96368 143.55943 32895 ft 601 kts 84°
2026-04-23 08:20 35.97419 143.66179 32886 ft 601 kts 84°
2026-04-23 08:20 35.98447 143.76420 32893 ft 601 kts 84°
2026-04-23 08:21 35.99457 143.86605 32887 ft 602 kts 84°
2026-04-23 08:21 36.00468 143.96859 32886 ft 602 kts 84°
2026-04-23 08:22 36.02263 144.06910 32885 ft 601 kts 66°
2026-04-23 08:22 36.06305 144.15789 32883 ft 595 kts 48°
2026-04-23 08:23 36.11924 144.23150 32895 ft 588 kts 40°
2026-04-23 08:23 36.17674 144.30386 32888 ft 591 kts 41°
2026-04-23 08:24 36.23368 144.37755 32893 ft 593 kts 42°
2026-04-23 08:24 36.29022 144.45201 32913 ft 594 kts 42°
2026-04-23 08:25 36.34644 144.52619 32918 ft 595 kts 42°
2026-04-23 08:25 36.40309 144.60095 32914 ft 595 kts 42°
2026-04-23 08:26 36.45980 144.67587 32916 ft 595 kts 42°
2026-04-23 08:26 36.51650 144.75092 32917 ft 596 kts 42°
2026-04-23 08:27 36.57281 144.82566 32917 ft 596 kts 42°
2026-04-23 08:27 36.62944 144.90099 32918 ft 596 kts 42°
2026-04-23 08:28 36.68598 144.97639 32913 ft 595 kts 42°
2026-04-23 08:28 36.74250 145.05192 32918 ft 596 kts 43°
2026-04-23 08:29 36.79853 145.12702 32912 ft 596 kts 43°
2026-04-23 08:29 36.85494 145.20277 32919 ft 595 kts 42°
2026-04-23 08:30 36.91129 145.27865 32916 ft 596 kts 42°
2026-04-23 08:30 36.96765 145.35466 32918 ft 596 kts 42°
2026-04-23 08:31 37.02394 145.43077 32915 ft 596 kts 43°
2026-04-23 08:31 37.07981 145.50652 32915 ft 596 kts 43°
2026-04-23 08:32 37.13605 145.58295 32917 ft 596 kts 43°
2026-04-23 08:32 37.18614 145.66652 32915 ft 605 kts 57°
2026-04-23 08:33 37.22131 145.76257 32921 ft 609 kts 72°
2026-04-23 08:33 37.24396 145.86415 32915 ft 609 kts 75°
2026-04-23 08:34 37.26609 145.96687 32920 ft 610 kts 75°
2026-04-23 08:34 37.28897 146.06959 32919 ft 611 kts 74°
2026-04-23 08:35 37.31229 146.17228 32915 ft 612 kts 74°
2026-04-23 08:35 37.33544 146.27442 32913 ft 612 kts 74°
2026-04-23 08:36 37.35860 146.37741 32915 ft 612 kts 74°
2026-04-23 08:36 37.38163 146.48044 32916 ft 612 kts 74°
2026-04-23 08:37 37.40451 146.58353 32925 ft 612 kts 74°
2026-04-23 08:37 37.42715 146.68588 32926 ft 611 kts 74°
2026-04-23 08:38 37.44983 146.78895 32925 ft 611 kts 74°
2026-04-23 08:38 37.47244 146.89203 32925 ft 611 kts 74°
2026-04-23 08:39 37.49494 146.99506 32928 ft 610 kts 75°
2026-04-23 08:39 37.51736 147.09815 32925 ft 610 kts 75°
2026-04-23 08:40 37.53953 147.20063 32927 ft 610 kts 75°
2026-04-23 08:40 37.56175 147.30384 32915 ft 610 kts 75°
2026-04-23 08:41 37.58387 147.40718 32918 ft 611 kts 75°
2026-04-23 08:41 37.60591 147.51055 32917 ft 611 kts 75°
2026-04-23 08:42 37.62776 147.61334 32920 ft 611 kts 75°
2026-04-23 08:42 37.64967 147.71694 32908 ft 611 kts 75°
2026-04-23 08:43 37.67146 147.82061 32914 ft 612 kts 75°
2026-04-23 08:43 37.69319 147.92447 32916 ft 612 kts 75°
2026-04-23 08:44 37.71485 148.02844 32918 ft 612 kts 75°
2026-04-23 08:44 37.73646 148.13254 32916 ft 613 kts 75°
2026-04-23 08:45 37.75779 148.23598 32915 ft 613 kts 75°
2026-04-23 08:45 37.77919 148.34024 32913 ft 613 kts 75°
2026-04-23 08:46 37.80047 148.44446 32913 ft 612 kts 75°
2026-04-23 08:46 37.82166 148.54876 32919 ft 612 kts 75°
2026-04-23 08:47 37.84265 148.65238 32916 ft 612 kts 75°
2026-04-23 08:47 37.86366 148.75667 32920 ft 611 kts 75°
2026-04-23 08:48 37.88457 148.86099 32918 ft 611 kts 75°
2026-04-23 08:48 37.90520 148.96454 32914 ft 611 kts 76°
2026-04-23 08:49 37.92590 149.06886 32918 ft 611 kts 76°
2026-04-23 08:49 37.94649 149.17317 32920 ft 611 kts 76°
2026-04-23 08:50 37.96698 149.27756 32920 ft 611 kts 76°
2026-04-23 08:50 37.98740 149.38210 32915 ft 611 kts 76°
2026-04-23 08:51 38.00761 149.48602 32913 ft 612 kts 76°
2026-04-23 08:51 38.02790 149.59091 32915 ft 613 kts 76°
2026-04-23 08:52 38.04813 149.69607 32920 ft 614 kts 76°
2026-04-23 08:52 38.06817 149.80079 32917 ft 615 kts 76°
2026-04-23 08:53 38.08830 149.90643 33229 ft 615 kts 76°
2026-04-23 08:53 38.09975 149.95859 33456 ft 613 kts 71°
2026-04-23 08:53 38.11436 150.00933 33661 ft 611 kts 66°
2026-04-23 08:54 38.13160 150.05845 33920 ft 607 kts 60°
2026-04-23 08:54 38.15192 150.10517 34174 ft 602 kts 56°
2026-04-23 08:54 38.17311 150.15093 34449 ft 599 kts 56°
2026-04-23 08:54 38.19403 150.19573 34769 ft 596 kts 55°
2026-04-23 08:55 38.21509 150.24110 34876 ft 596 kts 56°
2026-04-23 08:55 38.23602 150.28647 34902 ft 594 kts 56°
2026-04-23 08:55 38.27726 150.37700 34901 ft 589 kts 56°
2026-04-23 08:56 38.31789 150.46755 34915 ft 589 kts 56°
2026-04-23 08:56 38.35822 150.55753 34919 ft 589 kts 56°
2026-04-23 08:57 38.39893 150.64840 34919 ft 591 kts 56°
2026-04-23 08:57 38.43969 150.73953 34921 ft 592 kts 56°
2026-04-23 08:58 38.48044 150.83100 34916 ft 594 kts 56°
2026-04-23 08:58 38.52119 150.92272 34919 ft 594 kts 56°
2026-04-23 08:59 38.56164 151.01404 34916 ft 594 kts 56°
2026-04-23 08:59 38.60229 151.10609 34928 ft 595 kts 56°
2026-04-23 09:00 38.64291 151.19827 34927 ft 595 kts 56°
2026-04-23 09:00 38.68319 151.28994 34926 ft 595 kts 56°
2026-04-23 09:01 38.72360 151.38231 34926 ft 595 kts 56°
2026-04-23 09:01 38.76393 151.47477 34925 ft 595 kts 56°
2026-04-23 09:02 38.80423 151.56733 34926 ft 595 kts 56°
2026-04-23 09:02 38.84449 151.66006 34928 ft 595 kts 56°
2026-04-23 09:03 38.88443 151.75239 34924 ft 596 kts 56°
2026-04-23 09:03 38.92460 151.84545 34925 ft 596 kts 56°
2026-04-23 09:04 38.96471 151.93870 34925 ft 597 kts 56°
2026-04-23 09:04 39.00453 152.03159 34928 ft 598 kts 56°
2026-04-23 09:05 39.04461 152.12531 34925 ft 599 kts 56°
2026-04-23 09:05 39.08473 152.21936 34926 ft 600 kts 56°
2026-04-23 09:06 39.12482 152.31370 34928 ft 601 kts 56°
2026-04-23 09:06 39.16488 152.40825 34929 ft 602 kts 56°
2026-04-23 09:07 39.20466 152.50243 34924 ft 603 kts 56°
2026-04-23 09:07 39.24466 152.59740 34926 ft 603 kts 57°
2026-04-23 09:08 39.28460 152.69252 34926 ft 603 kts 57°
2026-04-23 09:08 39.31773 152.77167 34926 ft 603 kts 57°
2026-04-23 09:09 39.36399 152.88247 34924 ft 603 kts 57°
2026-04-23 09:09 39.40372 152.97795 34926 ft 603 kts 57°
2026-04-23 09:10 39.45643 153.10513 34925 ft 603 kts 57°
2026-04-23 09:11 39.49593 153.20080 34925 ft 602 kts 57°
2026-04-23 09:11 39.54173 153.31205 34926 ft 602 kts 57°
2026-04-23 09:12 39.57439 153.39168 34925 ft 602 kts 57°
2026-04-23 09:12 39.61366 153.48760 34930 ft 603 kts 57°
2026-04-23 09:13 39.65292 153.58390 34920 ft 604 kts 57°
2026-04-23 09:13 39.69218 153.68040 34916 ft 605 kts 57°
2026-04-23 09:14 39.73141 153.77715 34915 ft 606 kts 57°
2026-04-23 09:14 39.77034 153.87355 34921 ft 606 kts 57°
2026-04-23 09:15 39.80949 153.97079 34913 ft 608 kts 57°
2026-04-23 09:15 39.84862 154.06826 34921 ft 608 kts 57°
2026-04-23 09:16 39.88743 154.16526 34916 ft 609 kts 57°
2026-04-23 09:16 39.92648 154.26317 34919 ft 609 kts 57°
2026-04-23 09:17 39.96543 154.36118 34915 ft 609 kts 57°
2026-04-23 09:17 40.00427 154.45921 34915 ft 608 kts 57°
2026-04-23 09:18 40.04269 154.55653 34912 ft 608 kts 57°
2026-04-23 09:18 40.08135 154.65467 34916 ft 608 kts 57°
2026-04-23 09:19 40.11994 154.75299 34919 ft 609 kts 57°
2026-04-23 09:19 40.15848 154.85156 34915 ft 609 kts 57°
2026-04-23 09:20 40.19676 154.94976 34919 ft 610 kts 57°
2026-04-23 09:20 40.23526 155.04882 34919 ft 611 kts 57°
2026-04-23 09:21 40.27368 155.14807 34915 ft 611 kts 57°
2026-04-23 09:21 40.31201 155.24741 34923 ft 611 kts 57°
2026-04-23 09:22 40.35027 155.34683 34914 ft 611 kts 57°
2026-04-23 09:22 40.38813 155.44562 34917 ft 610 kts 57°
2026-04-23 09:23 40.42617 155.54523 34918 ft 610 kts 57°
2026-04-23 09:23 40.46414 155.64490 34916 ft 610 kts 58°
2026-04-23 09:24 40.50198 155.74461 34917 ft 610 kts 58°
2026-04-23 09:24 40.53947 155.84373 34916 ft 610 kts 58°
2026-04-23 09:25 40.57712 155.94362 34916 ft 609 kts 58°
2026-04-23 09:25 40.61470 156.04362 34913 ft 610 kts 58°
2026-04-23 09:26 40.65223 156.14389 34920 ft 611 kts 58°
2026-04-23 09:26 40.68948 156.24384 34918 ft 613 kts 58°
2026-04-23 09:27 40.72707 156.34485 34919 ft 614 kts 58°
2026-04-23 09:27 40.76461 156.44621 34918 ft 616 kts 58°
2026-04-23 09:28 40.80213 156.54781 34917 ft 616 kts 58°
2026-04-23 09:28 40.83933 156.64890 34914 ft 617 kts 58°
2026-04-23 09:29 40.87673 156.75091 34916 ft 617 kts 58°
2026-04-23 09:29 40.91406 156.85312 34916 ft 618 kts 58°
2026-04-23 09:30 40.95110 156.95485 34914 ft 619 kts 58°
2026-04-23 09:30 40.98834 157.05750 34906 ft 619 kts 58°
2026-04-23 09:31 41.02541 157.16005 34908 ft 619 kts 58°
2026-04-23 09:31 41.06251 157.26306 34908 ft 620 kts 58°
2026-04-23 09:32 41.09955 157.36634 34907 ft 621 kts 58°
2026-04-23 09:32 41.13630 157.46909 34907 ft 621 kts 58°
2026-04-23 09:33 41.17323 157.57286 34909 ft 622 kts 58°
2026-04-23 09:33 41.21017 157.67684 34907 ft 623 kts 58°
2026-04-23 09:34 41.24708 157.78117 34909 ft 624 kts 58°
2026-04-23 09:34 41.28367 157.88500 34907 ft 625 kts 58°
2026-04-23 09:35 41.32048 157.98982 34911 ft 626 kts 58°
2026-04-23 09:35 41.35717 158.09486 34904 ft 626 kts 58°
2026-04-23 09:36 41.39379 158.19993 34906 ft 626 kts 58°
2026-04-23 09:36 41.43039 158.30522 34910 ft 627 kts 58°
2026-04-23 09:37 41.46666 158.40999 34908 ft 627 kts 58°
2026-04-23 09:37 41.50304 158.51571 34906 ft 627 kts 59°
2026-04-23 09:38 41.53937 158.62160 34831 ft 628 kts 59°
2026-04-23 09:38 41.57567 158.72774 34810 ft 627 kts 59°
2026-04-23 09:39 41.61155 158.83312 34807 ft 627 kts 59°
2026-04-23 09:39 41.64759 158.93929 34799 ft 627 kts 59°
2026-04-23 09:40 41.68352 159.04554 34801 ft 627 kts 59°
2026-04-23 09:40 41.71934 159.15196 34810 ft 627 kts 59°
2026-04-23 09:41 41.75482 159.25774 34804 ft 627 kts 59°
2026-04-23 09:41 41.79046 159.36435 34808 ft 627 kts 59°
2026-04-23 09:42 41.82604 159.47118 34810 ft 628 kts 59°
2026-04-23 09:42 41.86157 159.57833 34811 ft 629 kts 59°
2026-04-23 09:43 41.89679 159.68498 34797 ft 630 kts 59°
2026-04-23 09:43 41.93220 159.79263 34801 ft 631 kts 59°
2026-04-23 09:44 41.96756 159.90057 34804 ft 632 kts 59°
2026-04-23 09:44 42.00000 160.01076 34818 ft 639 kts 67°
2026-04-23 09:45 42.02023 160.12687 34814 ft 645 kts 76°
2026-04-23 09:45 42.03608 160.24563 34794 ft 646 kts 77°
2026-04-23 09:46 42.05222 160.36445 34802 ft 645 kts 76°
2026-04-23 09:46 42.06892 160.48306 34798 ft 645 kts 76°
2026-04-23 09:47 42.08562 160.60067 34797 ft 644 kts 76°
2026-04-23 09:47 42.10223 160.71903 34799 ft 643 kts 76°
2026-04-23 09:48 42.11861 160.83726 34788 ft 642 kts 76°
2026-04-23 09:48 42.13482 160.95546 34801 ft 642 kts 76°
2026-04-23 09:49 42.15082 161.07290 34801 ft 641 kts 77°
2026-04-23 09:49 42.16677 161.19110 34793 ft 641 kts 77°
2026-04-23 09:50 42.18261 161.30927 34797 ft 640 kts 76°
2026-04-23 09:50 42.19832 161.42742 34801 ft 640 kts 77°
2026-04-23 09:51 42.21379 161.54487 34792 ft 641 kts 77°
2026-04-23 09:51 42.22929 161.66330 34794 ft 642 kts 77°
2026-04-23 09:52 42.24473 161.78211 34788 ft 643 kts 77°
2026-04-23 09:52 42.26002 161.90117 34789 ft 644 kts 77°
2026-04-23 09:53 42.27510 162.01965 34786 ft 645 kts 77°
2026-04-23 09:53 42.29019 162.13907 34784 ft 645 kts 77°
2026-04-23 09:54 42.30517 162.25857 34788 ft 645 kts 77°
2026-04-23 09:54 42.32000 162.37804 34789 ft 645 kts 77°
2026-04-23 09:55 42.33468 162.49747 34784 ft 644 kts 77°
2026-04-23 09:55 42.34913 162.61601 34787 ft 643 kts 78°
2026-04-23 09:56 42.36356 162.73521 34787 ft 642 kts 78°
2026-04-23 09:56 42.37781 162.85428 34788 ft 641 kts 78°
2026-04-23 09:57 42.39184 162.97235 34786 ft 640 kts 78°
2026-04-23 09:57 42.40580 163.09117 34789 ft 639 kts 78°
2026-04-23 09:58 42.41968 163.20984 34781 ft 639 kts 78°
2026-04-23 09:58 42.43340 163.32865 34785 ft 639 kts 78°
2026-04-23 09:59 42.44697 163.44761 34780 ft 640 kts 78°
2026-04-23 09:59 42.46037 163.56589 34779 ft 640 kts 78°
2026-04-23 10:00 42.47378 163.68517 34775 ft 641 kts 78°
2026-04-23 10:00 42.48706 163.80470 34773 ft 642 kts 78°
2026-04-23 10:01 42.50024 163.92452 34779 ft 643 kts 78°
2026-04-23 10:01 42.51323 164.04373 34780 ft 644 kts 78°
2026-04-23 10:02 42.52622 164.16397 34778 ft 645 kts 79°
2026-04-23 10:02 42.53905 164.28425 34776 ft 644 kts 79°
2026-04-23 10:03 42.55176 164.40435 34777 ft 643 kts 79°
2026-04-23 10:03 42.56420 164.52337 34773 ft 641 kts 79°
2026-04-23 10:04 42.57657 164.64297 34777 ft 639 kts 79°
2026-04-23 10:04 42.58877 164.76231 34775 ft 637 kts 79°
2026-04-23 10:05 42.60087 164.88133 34779 ft 636 kts 79°
2026-04-23 10:05 42.61273 164.99948 34774 ft 636 kts 79°
2026-04-23 10:06 42.62452 165.11832 34780 ft 635 kts 79°
2026-04-23 10:06 42.63617 165.23713 34787 ft 635 kts 80°
2026-04-23 10:07 42.64773 165.35595 34785 ft 635 kts 80°
2026-04-23 10:07 42.65914 165.47494 34786 ft 635 kts 79°
2026-04-23 10:08 42.67040 165.59325 34784 ft 636 kts 80°
2026-04-23 10:08 42.68164 165.71255 34791 ft 637 kts 80°
2026-04-23 10:09 42.69820 165.89182 34785 ft 637 kts 80°
2026-04-23 10:09 42.70903 166.01064 34789 ft 638 kts 80°
2026-04-23 10:10 42.71983 166.13039 34785 ft 638 kts 80°
2026-04-23 10:10 42.73050 166.25014 34772 ft 638 kts 80°
2026-04-23 10:11 42.74103 166.36991 34775 ft 637 kts 81°
2026-04-23 10:11 42.75136 166.48858 34776 ft 635 kts 81°
2026-04-23 10:12 42.76160 166.60785 34776 ft 634 kts 81°
2026-04-23 10:12 42.77168 166.72693 34776 ft 633 kts 81°
2026-04-23 10:13 42.78166 166.84587 34767 ft 633 kts 81°
2026-04-23 10:13 42.79150 166.96476 34769 ft 632 kts 81°
2026-04-23 10:14 42.80115 167.08277 34767 ft 631 kts 81°
2026-04-23 10:14 42.81072 167.20154 34768 ft 631 kts 82°
2026-04-23 10:15 42.82014 167.32037 34770 ft 631 kts 81°
2026-04-23 10:15 42.82948 167.43933 34767 ft 632 kts 81°
2026-04-23 10:16 42.83866 167.55752 34770 ft 632 kts 82°
2026-04-23 10:16 42.84775 167.67671 34765 ft 633 kts 82°
2026-04-23 10:17 42.85672 167.79603 34758 ft 633 kts 82°
2026-04-23 10:17 42.86559 167.91543 34759 ft 633 kts 82°
2026-04-23 10:18 42.87426 168.03408 34762 ft 634 kts 82°
2026-04-23 10:18 42.88287 168.15366 34758 ft 633 kts 82°
2026-04-23 10:19 42.89138 168.27310 34758 ft 633 kts 82°
2026-04-23 10:19 42.89971 168.39168 34758 ft 632 kts 82°
2026-04-23 10:20 42.90790 168.51089 34759 ft 631 kts 82°
2026-04-23 10:20 42.91598 168.62999 34762 ft 630 kts 83°
2026-04-23 10:21 42.92394 168.74903 34757 ft 630 kts 83°
2026-04-23 10:21 42.93173 168.86719 34758 ft 629 kts 83°
2026-04-23 10:22 42.93943 168.98611 34759 ft 629 kts 83°
2026-04-23 10:22 42.94699 169.10511 34760 ft 629 kts 83°
2026-04-23 10:23 42.95446 169.22421 34759 ft 630 kts 83°
2026-04-23 10:23 42.96175 169.34255 34759 ft 630 kts 83°
2026-04-23 10:24 42.96898 169.46181 34759 ft 630 kts 83°
2026-04-23 10:24 42.97608 169.58105 34759 ft 630 kts 83°
2026-04-23 10:25 42.98305 169.70041 34757 ft 631 kts 83°
2026-04-23 10:25 42.98986 169.81896 34748 ft 630 kts 84°
2026-04-23 10:26 42.99699 169.93828 34746 ft 629 kts 81°
2026-04-23 10:26 43.01300 170.05509 34755 ft 623 kts 70°
2026-04-23 10:27 43.04021 170.16655 34747 ft 617 kts 65°
2026-04-23 10:27 43.06883 170.27707 34750 ft 616 kts 65°
2026-04-23 10:28 43.09659 170.38704 34751 ft 615 kts 66°
2026-04-23 10:28 43.12392 170.49795 34751 ft 615 kts 66°
2026-04-23 10:29 43.15102 170.60887 34747 ft 614 kts 66°
2026-04-23 10:29 43.17808 170.71973 34748 ft 613 kts 66°
2026-04-23 10:30 43.20487 170.82982 34749 ft 613 kts 66°
2026-04-23 10:30 43.23170 170.94059 34751 ft 611 kts 66°
2026-04-23 10:31 43.25837 171.05128 34753 ft 611 kts 67°
2026-04-23 10:31 43.28489 171.16196 34748 ft 610 kts 67°
2026-04-23 10:32 43.31112 171.27184 34747 ft 610 kts 67°
2026-04-23 10:32 43.33738 171.38253 34741 ft 609 kts 67°
2026-04-23 10:33 43.36350 171.49311 34738 ft 608 kts 68°
2026-04-23 10:33 43.38948 171.60361 34739 ft 607 kts 68°
2026-04-23 10:34 43.41512 171.71329 34739 ft 606 kts 68°
2026-04-23 10:34 43.44077 171.82353 34739 ft 604 kts 68°
2026-04-23 10:35 43.46625 171.93356 34735 ft 603 kts 68°
2026-04-23 10:35 43.49156 172.04347 34747 ft 602 kts 69°
2026-04-23 10:36 43.51657 172.15251 34739 ft 601 kts 69°
2026-04-23 10:36 43.54163 172.26225 34735 ft 600 kts 69°
2026-04-23 10:37 43.56654 172.37197 34726 ft 599 kts 69°
2026-04-23 10:37 43.59133 172.48174 34734 ft 600 kts 69°
2026-04-23 10:38 43.61587 172.59092 34735 ft 600 kts 69°
2026-04-23 10:38 43.64045 172.70101 34734 ft 600 kts 69°
2026-04-23 10:39 43.66499 172.81133 34738 ft 601 kts 69°
2026-04-23 10:39 43.68943 172.92170 34735 ft 601 kts 69°
2026-04-23 10:40 43.71357 173.03140 34740 ft 601 kts 69°
2026-04-23 10:40 43.73775 173.14190 34733 ft 600 kts 69°
2026-04-23 10:41 43.76184 173.25241 34728 ft 600 kts 69°
2026-04-23 10:41 43.78577 173.36283 34736 ft 599 kts 70°
2026-04-23 10:42 43.80953 173.47322 34737 ft 598 kts 70°
2026-04-23 10:42 43.83304 173.58278 34734 ft 597 kts 70°
2026-04-23 10:43 43.85659 173.69303 34731 ft 597 kts 70°
2026-04-23 10:43 43.87998 173.80329 34728 ft 596 kts 70°
2026-04-23 10:44 43.90326 173.91360 34731 ft 596 kts 70°
2026-04-23 10:44 43.92627 174.02313 34720 ft 596 kts 71°
2026-04-23 10:45 43.94933 174.13356 34729 ft 596 kts 71°
2026-04-23 10:45 43.97229 174.24411 34738 ft 596 kts 71°
2026-04-23 10:46 43.99513 174.35480 34731 ft 596 kts 71°
2026-04-23 10:46 44.01773 174.46478 34730 ft 596 kts 71°
2026-04-23 10:47 44.04035 174.57543 34728 ft 595 kts 71°
2026-04-23 10:47 44.06283 174.68599 34727 ft 593 kts 71°
2026-04-23 10:48 44.08512 174.79629 34729 ft 592 kts 72°
2026-04-23 10:48 44.10707 174.90565 34731 ft 590 kts 72°
2026-04-23 10:49 44.12903 175.01541 34726 ft 588 kts 72°
2026-04-23 10:49 44.15080 175.12494 34729 ft 587 kts 72°
2026-04-23 10:50 44.17244 175.23440 34727 ft 586 kts 72°
2026-04-23 10:50 44.19379 175.34297 34728 ft 584 kts 72°
2026-04-23 10:51 44.21513 175.45219 34734 ft 584 kts 72°
2026-04-23 10:51 44.23635 175.56142 34730 ft 584 kts 72°
2026-04-23 10:52 44.25751 175.67074 34740 ft 584 kts 72°
2026-04-23 10:52 44.27856 175.78020 34741 ft 585 kts 72°
2026-04-23 10:53 44.29938 175.88912 34733 ft 585 kts 72°
2026-04-23 10:53 44.32023 175.99881 34725 ft 584 kts 72°
2026-04-23 10:54 44.34096 176.10857 34734 ft 585 kts 73°
2026-04-23 10:54 44.36161 176.21849 34732 ft 585 kts 73°
2026-04-23 10:55 44.38201 176.32773 34731 ft 585 kts 73°
2026-04-23 10:55 44.40245 176.43777 34717 ft 585 kts 73°
2026-04-23 10:56 44.42273 176.54780 34735 ft 584 kts 73°
2026-04-23 10:56 44.44292 176.65777 34728 ft 583 kts 73°
2026-04-23 10:57 44.46283 176.76682 34725 ft 582 kts 74°
2026-04-23 10:57 44.48272 176.87645 34738 ft 580 kts 74°
2026-04-23 10:58 44.50243 176.98594 34729 ft 579 kts 74°
2026-04-23 10:58 44.52201 177.09517 34730 ft 577 kts 74°
2026-04-23 10:59 44.54133 177.20354 34725 ft 577 kts 74°
2026-04-23 10:59 44.56066 177.31268 34731 ft 576 kts 74°
2026-04-23 11:00 44.57985 177.42178 34731 ft 577 kts 74°
2026-04-23 11:00 44.59897 177.53100 34734 ft 577 kts 74°
2026-04-23 11:01 44.61783 177.63960 34724 ft 576 kts 74°
2026-04-23 11:01 44.63673 177.74907 34698 ft 577 kts 74°
2026-04-23 11:02 44.65554 177.85857 34691 ft 577 kts 74°
2026-04-23 11:02 44.67426 177.96813 34694 ft 577 kts 75°
2026-04-23 11:03 44.69286 178.07772 34698 ft 576 kts 75°
2026-04-23 11:03 44.71120 178.18654 34694 ft 576 kts 75°
2026-04-23 11:04 44.72951 178.29601 34692 ft 575 kts 75°
2026-04-23 11:04 44.74772 178.40546 34693 ft 574 kts 75°
2026-04-23 11:05 44.76581 178.51479 34692 ft 573 kts 75°
2026-04-23 11:05 44.78364 178.62333 34698 ft 573 kts 75°
2026-04-23 11:06 44.81035 178.78723 34704 ft 572 kts 76°
2026-04-23 11:07 44.82802 178.89641 34702 ft 572 kts 76°
2026-04-23 11:07 44.84553 179.00567 34703 ft 572 kts 76°
2026-04-23 11:08 44.86287 179.11420 34706 ft 571 kts 76°
2026-04-23 11:08 44.88021 179.22352 34699 ft 571 kts 76°
2026-04-23 11:09 44.89742 179.33283 34701 ft 571 kts 76°
2026-04-23 11:09 44.91456 179.44230 34698 ft 572 kts 76°
2026-04-23 11:10 44.93161 179.55192 34694 ft 572 kts 76°
2026-04-23 11:10 44.94840 179.66084 34695 ft 572 kts 76°
2026-04-23 11:11 44.96519 179.77052 34695 ft 571 kts 77°
2026-04-23 11:11 44.98190 179.88019 34700 ft 571 kts 77°
2026-04-23 11:12 44.99812 179.99001 34699 ft 571 kts 79°
2026-04-23 11:12 45.00575 -179.89910 34690 ft 571 kts 87°
2026-04-23 11:13 45.00971 -179.78686 34600 ft 573 kts 87°
2026-04-23 11:13 45.01374 -179.67440 34533 ft 573 kts 87°
2026-04-23 11:14 45.01814 -179.56199 34521 ft 572 kts 86°
2026-04-23 11:14 45.02257 -179.45050 34515 ft 572 kts 86°
2026-04-23 11:15 45.02696 -179.33832 34517 ft 571 kts 87°
2026-04-23 11:15 45.03119 -179.22618 34517 ft 571 kts 87°
2026-04-23 11:16 45.03528 -179.11400 34517 ft 571 kts 87°
2026-04-23 11:16 45.03927 -179.00174 34514 ft 573 kts 87°
2026-04-23 11:17 45.04311 -178.89000 34519 ft 573 kts 87°
2026-04-23 11:17 45.04688 -178.77739 34515 ft 573 kts 87°
2026-04-23 11:18 45.05055 -178.66473 34517 ft 574 kts 87°
2026-04-23 11:18 45.05409 -178.55189 34517 ft 575 kts 88°
2026-04-23 11:19 45.05752 -178.43976 34516 ft 575 kts 88°
2026-04-23 11:19 45.06087 -178.32678 34514 ft 575 kts 88°
2026-04-23 11:20 45.06410 -178.21370 34517 ft 576 kts 88°
2026-04-23 11:20 45.06723 -178.10054 34516 ft 576 kts 88°
2026-04-23 11:21 45.07022 -177.98816 34516 ft 576 kts 88°
2026-04-23 11:21 45.07313 -177.87490 34515 ft 576 kts 88°
2026-04-23 11:22 45.07589 -177.76154 34517 ft 577 kts 88°
2026-04-23 11:22 45.07858 -177.64810 34517 ft 577 kts 88°
2026-04-23 11:23 45.08112 -177.53539 34514 ft 577 kts 88°
2026-04-23 11:23 45.08357 -177.42190 34516 ft 577 kts 88°
2026-04-23 11:24 45.08595 -177.30836 34516 ft 578 kts 88°
2026-04-23 11:24 45.08819 -177.19478 34551 ft 577 kts 89°
2026-04-23 11:25 45.09028 -177.08194 34554 ft 578 kts 89°
2026-04-23 11:25 45.09228 -176.96822 34553 ft 578 kts 89°
2026-04-23 11:26 45.09418 -176.85439 34553 ft 578 kts 89°
2026-04-23 11:26 45.09598 -176.74057 34554 ft 579 kts 89°
2026-04-23 11:27 45.09763 -176.62749 34553 ft 579 kts 89°
2026-04-23 11:27 45.09920 -176.51361 34546 ft 579 kts 89°
2026-04-23 11:28 45.10063 -176.39960 34544 ft 579 kts 89°
2026-04-23 11:28 45.10198 -176.28567 34544 ft 579 kts 89°
2026-04-23 11:29 45.10318 -176.17259 34543 ft 578 kts 89°
2026-04-23 11:29 45.10430 -176.05876 34544 ft 578 kts 89°
2026-04-23 11:30 45.10529 -175.94491 34542 ft 578 kts 90°
2026-04-23 11:30 45.10618 -175.83107 34544 ft 578 kts 90°
2026-04-23 11:31 45.10694 -175.71796 34545 ft 579 kts 90°
2026-04-23 11:31 45.10758 -175.60404 34543 ft 579 kts 90°
2026-04-23 11:32 45.10816 -175.49007 34545 ft 579 kts 90°
2026-04-23 11:32 45.10859 -175.37600 34543 ft 580 kts 90°
2026-04-23 11:33 45.10890 -175.26263 34544 ft 580 kts 90°
2026-04-23 11:33 45.10910 -175.14850 34544 ft 580 kts 90°
2026-04-23 11:34 45.10919 -175.03435 34544 ft 580 kts 90°
2026-04-23 11:34 45.10918 -174.92021 34544 ft 580 kts 90°
2026-04-23 11:35 45.10904 -174.80598 34544 ft 581 kts 91°
2026-04-23 11:35 45.10875 -174.69247 34543 ft 580 kts 91°
2026-04-23 11:36 45.10839 -174.57817 34545 ft 581 kts 91°
2026-04-23 11:36 45.10795 -174.46362 34543 ft 581 kts 91°
2026-04-23 11:37 45.10737 -174.34924 34543 ft 581 kts 91°
2026-04-23 11:37 45.10663 -174.23564 34543 ft 581 kts 91°
2026-04-23 11:38 45.10584 -174.12134 34551 ft 580 kts 91°
2026-04-23 11:38 45.10492 -174.00725 34599 ft 579 kts 91°
2026-04-23 11:39 45.10386 -173.89321 34599 ft 580 kts 92°
2026-04-23 11:39 45.10269 -173.77909 34604 ft 580 kts 92°
2026-04-23 11:40 45.10142 -173.66571 34598 ft 580 kts 92°
2026-04-23 11:40 45.10001 -173.55151 34600 ft 581 kts 92°
2026-04-23 11:41 45.09853 -173.43718 34597 ft 581 kts 92°
2026-04-23 11:41 45.09693 -173.32278 34599 ft 582 kts 92°
2026-04-23 11:42 45.09522 -173.20910 34599 ft 582 kts 92°
2026-04-23 11:42 45.09336 -173.09454 34600 ft 583 kts 92°
2026-04-23 11:43 45.09139 -172.97988 34602 ft 583 kts 93°
2026-04-23 11:43 45.08931 -172.86517 34599 ft 583 kts 93°
2026-04-23 11:44 45.08713 -172.75110 34600 ft 584 kts 93°
2026-04-23 11:44 45.08483 -172.63629 34598 ft 584 kts 94°
2026-04-23 11:45 45.08240 -172.52155 34599 ft 583 kts 94°
2026-04-23 11:45 45.07986 -172.40684 34598 ft 583 kts 94°
2026-04-23 11:46 45.07718 -172.29230 34595 ft 582 kts 94°
2026-04-23 11:46 45.07446 -172.17861 34599 ft 582 kts 94°
2026-04-23 11:47 45.07159 -172.06419 34596 ft 582 kts 94°
2026-04-23 11:47 45.06859 -171.94971 34598 ft 582 kts 95°
2026-04-23 11:48 45.06549 -171.83519 34597 ft 583 kts 95°
2026-04-23 11:48 45.06227 -171.72127 34603 ft 584 kts 95°
2026-04-23 11:49 45.05891 -171.60644 34598 ft 585 kts 95°
2026-04-23 11:49 45.05545 -171.49146 34600 ft 586 kts 96°
2026-04-23 11:50 45.05186 -171.37629 34596 ft 587 kts 96°
2026-04-23 11:50 45.04817 -171.26177 34599 ft 588 kts 96°
2026-04-23 11:51 45.04435 -171.14625 34601 ft 589 kts 96°
2026-04-23 11:51 45.04039 -171.03054 34605 ft 590 kts 96°
2026-04-23 11:52 45.03633 -170.91494 34614 ft 590 kts 96°
2026-04-23 11:52 45.03217 -170.79977 34609 ft 591 kts 97°
2026-04-23 11:53 45.02783 -170.68377 34607 ft 591 kts 97°
2026-04-23 11:53 45.02340 -170.56772 34609 ft 592 kts 97°
2026-04-23 11:54 45.01884 -170.45147 34610 ft 593 kts 97°
2026-04-23 11:54 45.01415 -170.33507 34609 ft 594 kts 97°
2026-04-23 11:55 45.00936 -170.21923 34610 ft 595 kts 97°
2026-04-23 11:55 45.00444 -170.10251 34608 ft 595 kts 98°
2026-04-23 11:56 45.00024 -169.98557 34610 ft 598 kts 94°
2026-04-23 11:56 45.00439 -169.86783 34598 ft 601 kts 90°
2026-04-23 11:57 45.01017 -169.75070 34614 ft 602 kts 90°
2026-04-23 11:57 45.01553 -169.63263 34611 ft 602 kts 90°
2026-04-23 11:58 45.02032 -169.51432 34611 ft 603 kts 91°
2026-04-23 11:58 45.02483 -169.39597 34609 ft 603 kts 91°
2026-04-23 11:59 45.02928 -169.27757 34607 ft 603 kts 91°
2026-04-23 11:59 45.03361 -169.15993 34611 ft 603 kts 91°
2026-04-23 12:00 45.03783 -169.04157 34605 ft 603 kts 91°
2026-04-23 12:00 45.04197 -168.92320 34611 ft 602 kts 91°
2026-04-23 12:01 45.04599 -168.80483 34608 ft 603 kts 92°
2026-04-23 12:01 45.04983 -168.68732 34608 ft 603 kts 92°
2026-04-23 12:02 45.05360 -168.56891 34611 ft 603 kts 92°
2026-04-23 12:02 45.05722 -168.45049 34609 ft 603 kts 92°
2026-04-23 12:03 45.06075 -168.33199 34608 ft 603 kts 92°
2026-04-23 12:03 45.06411 -168.21363 34616 ft 602 kts 92°
2026-04-23 12:04 45.06735 -168.09606 34619 ft 602 kts 93°
2026-04-23 12:04 45.07051 -167.97778 34618 ft 602 kts 93°
2026-04-23 12:05 45.07349 -167.85948 34617 ft 602 kts 93°
2026-04-23 12:05 45.07638 -167.74109 34619 ft 602 kts 93°
2026-04-23 12:06 45.07871 -167.64263 34619 ft 602 kts 94°
2026-04-23 12:06 45.08307 -167.44632 34623 ft 598 kts 93°
2026-04-23 12:07 45.08512 -167.34874 34621 ft 596 kts 93°
2026-04-23 12:07 45.08748 -167.23174 34629 ft 594 kts 94°
2026-04-23 12:08 45.08970 -167.11507 34638 ft 593 kts 94°
2026-04-23 12:08 45.09177 -166.99848 34638 ft 593 kts 94°
2026-04-23 12:09 45.09374 -166.88176 34639 ft 594 kts 94°
2026-04-23 12:09 45.09560 -166.76571 34638 ft 594 kts 94°
2026-04-23 12:10 45.09733 -166.64882 34638 ft 594 kts 94°
2026-04-23 12:10 45.09890 -166.53185 34637 ft 595 kts 95°
2026-04-23 12:11 45.10045 -166.41475 34658 ft 595 kts 95°
2026-04-23 12:11 45.10186 -166.29868 34744 ft 594 kts 95°
2026-04-23 12:12 45.10312 -166.18172 34739 ft 594 kts 95°
2026-04-23 12:12 45.10425 -166.06478 34741 ft 594 kts 95°
2026-04-23 12:13 45.10526 -165.94782 34737 ft 594 kts 95°
2026-04-23 12:13 45.10617 -165.83176 34740 ft 593 kts 95°
2026-04-23 12:14 45.10694 -165.71495 34743 ft 594 kts 95°
2026-04-23 12:14 45.10761 -165.59812 34740 ft 593 kts 96°
2026-04-23 12:15 45.10819 -165.48131 34743 ft 593 kts 96°
2026-04-23 12:15 45.10861 -165.36538 34737 ft 593 kts 96°
2026-04-23 12:16 45.10893 -165.24866 34742 ft 593 kts 96°
2026-04-23 12:16 45.10912 -165.13196 34739 ft 593 kts 96°
2026-04-23 12:17 45.10920 -165.01520 34742 ft 593 kts 96°
2026-04-23 12:17 45.10916 -164.89926 34738 ft 593 kts 96°
2026-04-23 12:18 45.10898 -164.78257 34743 ft 593 kts 96°
2026-04-23 12:18 45.10872 -164.66585 34735 ft 593 kts 96°
2026-04-23 12:19 45.10831 -164.54923 34737 ft 592 kts 97°
2026-04-23 12:19 45.10778 -164.43339 34743 ft 593 kts 97°
2026-04-23 12:20 45.10717 -164.31678 34735 ft 592 kts 97°
2026-04-23 12:20 45.10641 -164.20019 34773 ft 592 kts 97°
2026-04-23 12:21 45.10553 -164.08369 34777 ft 592 kts 97°
2026-04-23 12:21 45.10455 -163.96795 34776 ft 592 kts 97°
2026-04-23 12:22 45.10342 -163.85143 34777 ft 592 kts 97°
2026-04-23 12:22 45.10220 -163.73498 34775 ft 591 kts 97°
2026-04-23 12:23 45.10088 -163.61934 34801 ft 593 kts 97°
2026-04-23 12:23 45.10016 -163.56095 34959 ft 593 kts 97°
2026-04-23 12:23 45.09939 -163.50274 35254 ft 590 kts 97°
2026-04-23 12:24 45.09865 -163.44481 35571 ft 587 kts 97°
2026-04-23 12:24 45.09787 -163.38703 35749 ft 588 kts 97°
2026-04-23 12:24 45.09706 -163.32923 35944 ft 587 kts 97°
2026-04-23 12:24 45.09621 -163.27163 36198 ft 585 kts 97°
2026-04-23 12:25 45.09532 -163.21425 36478 ft 582 kts 97°
2026-04-23 12:25 45.09443 -163.15790 36754 ft 579 kts 97°
2026-04-23 12:25 45.09263 -163.04576 36769 ft 559 kts 97°
2026-04-23 12:26 45.09072 -162.93651 36779 ft 555 kts 97°
2026-04-23 12:26 45.08859 -162.82697 36786 ft 558 kts 97°
2026-04-23 12:27 45.08643 -162.71755 36784 ft 561 kts 97°
2026-04-23 12:27 45.08419 -162.60696 36780 ft 564 kts 97°
2026-04-23 12:28 45.08183 -162.49594 36782 ft 565 kts 97°
2026-04-23 12:28 45.07933 -162.38469 36780 ft 566 kts 97°
2026-04-23 12:29 45.07675 -162.27419 36774 ft 565 kts 97°
2026-04-23 12:29 45.07408 -162.16315 36796 ft 564 kts 98°
2026-04-23 12:30 45.07128 -162.05254 36810 ft 562 kts 98°
2026-04-23 12:30 45.06840 -161.94208 36817 ft 562 kts 97°
2026-04-23 12:31 45.06541 -161.83247 36815 ft 561 kts 97°
2026-04-23 12:31 45.06229 -161.72232 36812 ft 560 kts 97°
2026-04-23 12:32 45.05909 -161.61230 36833 ft 560 kts 97°
2026-04-23 12:32 45.05580 -161.50251 36909 ft 559 kts 97°
2026-04-23 12:33 45.05241 -161.39326 36923 ft 560 kts 97°
2026-04-23 12:33 45.04888 -161.28316 36921 ft 561 kts 97°
2026-04-23 12:34 45.04525 -161.17288 36922 ft 562 kts 97°
2026-04-23 12:34 45.04149 -161.06255 36918 ft 561 kts 97°
2026-04-23 12:35 45.03767 -160.95310 36918 ft 561 kts 97°
2026-04-23 12:35 45.03374 -160.84312 36906 ft 560 kts 97°
2026-04-23 12:36 45.02970 -160.73326 36913 ft 559 kts 97°
2026-04-23 12:36 45.02554 -160.62363 36921 ft 558 kts 97°
2026-04-23 12:37 45.02131 -160.51421 36921 ft 557 kts 97°
2026-04-23 12:37 45.01703 -160.40577 36935 ft 556 kts 97°
2026-04-23 12:38 45.01259 -160.29666 36946 ft 556 kts 97°
2026-04-23 12:38 45.00803 -160.18761 36945 ft 556 kts 97°
2026-04-23 12:39 45.00339 -160.07863 36948 ft 556 kts 97°
2026-04-23 12:39 44.99866 -159.97049 36980 ft 555 kts 97°
2026-04-23 12:40 44.99274 -159.86196 36985 ft 553 kts 98°
2026-04-23 12:40 44.98631 -159.75370 36980 ft 553 kts 98°
2026-04-23 12:41 44.97990 -159.64551 36981 ft 552 kts 98°
2026-04-23 12:41 44.97358 -159.53819 36986 ft 552 kts 98°
2026-04-23 12:42 44.96716 -159.43019 36976 ft 552 kts 98°
2026-04-23 12:42 44.96064 -159.32232 36986 ft 551 kts 98°
2026-04-23 12:43 44.95400 -159.21441 36977 ft 552 kts 98°
2026-04-23 12:43 44.94731 -159.10731 36970 ft 552 kts 97°
2026-04-23 12:44 44.94046 -158.99938 36963 ft 552 kts 98°
2026-04-23 12:44 44.93352 -158.89153 36964 ft 552 kts 97°
2026-04-23 12:45 44.92649 -158.78380 36961 ft 552 kts 97°
2026-04-23 12:45 44.91941 -158.67679 36964 ft 551 kts 97°
2026-04-23 12:46 44.91215 -158.56912 36962 ft 551 kts 97°
2026-04-23 12:46 44.90482 -158.46157 36965 ft 551 kts 97°
2026-04-23 12:47 44.89736 -158.35403 36963 ft 551 kts 97°
2026-04-23 12:47 44.88988 -158.24734 36972 ft 550 kts 97°
2026-04-23 12:48 44.88228 -158.14002 36996 ft 549 kts 97°
2026-04-23 12:48 44.87454 -158.03287 37022 ft 549 kts 97°
2026-04-23 12:49 44.86672 -157.92572 37041 ft 549 kts 97°
2026-04-23 12:49 44.85880 -157.81853 37026 ft 550 kts 97°
2026-04-23 12:50 44.85084 -157.71222 37028 ft 549 kts 97°
2026-04-23 12:50 44.84274 -157.60533 37032 ft 548 kts 97°
2026-04-23 12:51 44.83454 -157.49861 37026 ft 548 kts 97°
2026-04-23 12:51 44.82631 -157.39274 37029 ft 547 kts 97°
2026-04-23 12:52 44.81792 -157.28630 37027 ft 547 kts 97°
2026-04-23 12:52 44.80946 -157.17990 37029 ft 546 kts 97°
2026-04-23 12:53 44.80091 -157.07371 37025 ft 546 kts 97°
2026-04-23 12:53 44.79226 -156.96763 37029 ft 545 kts 97°
2026-04-23 12:54 44.78358 -156.86242 37029 ft 544 kts 97°
2026-04-23 12:54 44.77475 -156.75664 37025 ft 544 kts 97°
2026-04-23 12:55 44.76582 -156.65103 37029 ft 543 kts 97°
2026-04-23 12:55 44.75681 -156.54541 37028 ft 543 kts 97°
2026-04-23 12:56 44.74779 -156.44076 37025 ft 542 kts 97°
2026-04-23 12:56 44.73863 -156.33552 37038 ft 542 kts 97°
2026-04-23 12:57 44.72936 -156.23037 37046 ft 541 kts 97°
2026-04-23 12:57 44.72000 -156.12536 37045 ft 541 kts 97°
2026-04-23 12:58 44.71052 -156.02033 37048 ft 542 kts 97°
2026-04-23 12:58 44.70101 -155.91604 37058 ft 541 kts 97°
2026-04-23 12:59 44.69138 -155.81128 37051 ft 540 kts 97°
2026-04-23 12:59 44.68172 -155.70682 37055 ft 539 kts 97°
2026-04-23 13:00 44.67196 -155.60259 37053 ft 537 kts 97°
2026-04-23 13:00 44.66214 -155.49938 37054 ft 537 kts 97°
2026-04-23 13:01 44.65218 -155.39546 37031 ft 537 kts 97°
2026-04-23 13:01 44.64216 -155.29164 37026 ft 536 kts 97°
2026-04-23 13:02 44.63205 -155.18795 37029 ft 536 kts 97°
2026-04-23 13:02 44.62185 -155.08434 37030 ft 535 kts 97°
2026-04-23 13:03 44.61164 -154.98168 37063 ft 534 kts 97°
2026-04-23 13:03 44.60131 -154.87851 37072 ft 534 kts 97°
2026-04-23 13:04 44.59084 -154.77540 37077 ft 534 kts 97°
2026-04-23 13:04 44.58030 -154.67235 37074 ft 533 kts 98°
2026-04-23 13:05 44.56975 -154.57013 37075 ft 533 kts 98°
2026-04-23 13:05 44.55905 -154.46737 37075 ft 532 kts 98°
2026-04-23 13:06 44.54287 -154.31365 37075 ft 531 kts 98°
2026-04-23 13:07 44.53199 -154.21146 37073 ft 530 kts 98°
2026-04-23 13:07 44.52112 -154.11021 37080 ft 529 kts 98°
2026-04-23 13:08 44.51009 -154.00849 37123 ft 528 kts 98°
2026-04-23 13:08 44.49899 -153.90686 37133 ft 528 kts 97°
2026-04-23 13:09 44.48780 -153.80524 37129 ft 528 kts 98°
2026-04-23 13:09 44.47659 -153.70435 37129 ft 528 kts 98°
2026-04-23 13:10 44.46520 -153.60274 37129 ft 528 kts 98°
2026-04-23 13:10 44.45374 -153.50126 37131 ft 528 kts 98°
2026-04-23 13:11 44.44219 -153.39985 37129 ft 527 kts 98°
2026-04-23 13:11 44.43066 -153.29924 37132 ft 527 kts 98°
2026-04-23 13:12 44.41895 -153.19806 37140 ft 527 kts 98°
2026-04-23 13:12 44.40713 -153.09686 37141 ft 527 kts 98°
2026-04-23 13:13 44.39524 -152.99578 37138 ft 527 kts 98°
2026-04-23 13:13 44.38334 -152.89551 37139 ft 526 kts 98°
2026-04-23 13:14 44.37131 -152.79468 37138 ft 526 kts 97°
2026-04-23 13:14 44.35921 -152.69400 37137 ft 525 kts 97°
2026-04-23 13:15 44.34702 -152.59358 37137 ft 524 kts 97°
2026-04-23 13:15 44.33485 -152.49407 37137 ft 523 kts 97°
2026-04-23 13:16 44.32254 -152.39409 37140 ft 522 kts 97°
2026-04-23 13:16 44.31016 -152.29435 37148 ft 521 kts 97°
2026-04-23 13:17 44.29771 -152.19473 37147 ft 521 kts 97°
2026-04-23 13:17 44.28520 -152.09518 37149 ft 521 kts 97°
2026-04-23 13:18 44.27265 -151.99633 37150 ft 521 kts 97°
2026-04-23 13:18 44.25995 -151.89694 37147 ft 520 kts 97°
2026-04-23 13:19 44.24716 -151.79759 37148 ft 520 kts 97°
2026-04-23 13:19 44.23430 -151.69826 37149 ft 520 kts 97°
2026-04-23 13:20 44.22142 -151.59962 37147 ft 520 kts 97°
2026-04-23 13:20 44.20838 -151.50045 37148 ft 520 kts 97°
2026-04-23 13:21 44.19526 -151.40130 37165 ft 520 kts 97°
2026-04-23 13:21 44.18208 -151.30229 37193 ft 520 kts 98°
2026-04-23 13:22 44.16880 -151.20333 37203 ft 520 kts 97°
2026-04-23 13:22 44.15553 -151.10517 37215 ft 519 kts 98°
2026-04-23 13:23 44.14210 -151.00642 37213 ft 519 kts 97°
2026-04-23 13:23 44.12858 -150.90770 37213 ft 519 kts 97°
2026-04-23 13:24 44.11500 -150.80918 37212 ft 518 kts 97°
2026-04-23 13:24 44.10136 -150.71095 37211 ft 517 kts 97°
2026-04-23 13:25 44.08772 -150.61360 37213 ft 516 kts 97°
2026-04-23 13:25 44.07397 -150.51575 37213 ft 515 kts 97°
2026-04-23 13:26 44.06016 -150.41801 37210 ft 514 kts 97°
2026-04-23 13:26 44.04627 -150.32055 37209 ft 514 kts 97°
2026-04-23 13:27 44.03241 -150.22386 37213 ft 513 kts 97°
2026-04-23 13:27 44.01839 -150.12663 37213 ft 513 kts 97°
2026-04-23 13:28 44.00430 -150.02944 37212 ft 513 kts 97°
2026-04-23 13:28 43.98993 -149.93235 37212 ft 514 kts 98°
2026-04-23 13:29 43.97523 -149.83596 37213 ft 514 kts 98°
2026-04-23 13:29 43.96030 -149.73890 37214 ft 514 kts 98°
2026-04-23 13:30 43.94532 -149.64186 37213 ft 514 kts 98°
2026-04-23 13:30 43.93031 -149.54484 37212 ft 514 kts 98°
2026-04-23 13:31 43.91534 -149.44850 37213 ft 514 kts 98°
2026-04-23 13:31 43.90018 -149.35162 37212 ft 514 kts 98°
2026-04-23 13:32 43.88494 -149.25489 37212 ft 513 kts 99°
2026-04-23 13:32 43.86965 -149.15837 37211 ft 512 kts 99°
2026-04-23 13:33 43.85441 -149.06274 37211 ft 511 kts 99°
2026-04-23 13:33 43.83901 -148.96663 37212 ft 511 kts 99°
2026-04-23 13:34 43.82354 -148.87063 37215 ft 510 kts 99°
2026-04-23 13:34 43.80804 -148.77490 37210 ft 509 kts 100°
2026-04-23 13:35 43.79247 -148.67937 37211 ft 508 kts 100°
2026-04-23 13:35 43.77695 -148.58465 37213 ft 508 kts 100°
2026-04-23 13:36 43.76125 -148.48950 37212 ft 507 kts 100°
2026-04-23 13:36 43.74550 -148.39449 37212 ft 507 kts 100°
2026-04-23 13:37 43.72968 -148.29958 37211 ft 506 kts 101°
2026-04-23 13:37 43.71390 -148.20542 37213 ft 506 kts 101°
2026-04-23 13:38 43.69793 -148.11067 37210 ft 506 kts 101°
2026-04-23 13:38 43.68191 -148.01602 37212 ft 506 kts 101°
2026-04-23 13:39 43.66582 -147.92134 37212 ft 506 kts 101°
2026-04-23 13:39 43.64973 -147.82732 37213 ft 507 kts 101°
2026-04-23 13:40 43.63343 -147.73273 37212 ft 507 kts 101°
2026-04-23 13:40 43.61705 -147.63815 37212 ft 507 kts 101°
2026-04-23 13:41 43.60063 -147.54370 37220 ft 506 kts 101°
2026-04-23 13:41 43.58423 -147.44994 37221 ft 506 kts 101°
2026-04-23 13:42 43.56767 -147.35565 37221 ft 506 kts 101°
2026-04-23 13:42 43.55102 -147.26143 37222 ft 506 kts 102°
2026-04-23 13:43 43.53428 -147.16720 37222 ft 506 kts 102°
2026-04-23 13:43 43.51744 -147.07293 37223 ft 507 kts 102°
2026-04-23 13:44 43.50065 -146.97941 37219 ft 507 kts 102°
2026-04-23 13:44 43.48367 -146.88521 37222 ft 507 kts 102°
2026-04-23 13:45 43.46661 -146.79116 37222 ft 506 kts 102°
2026-04-23 13:45 43.44948 -146.69714 37222 ft 506 kts 102°
2026-04-23 13:46 43.43241 -146.60390 37221 ft 506 kts 102°
2026-04-23 13:46 43.41514 -146.51005 37217 ft 506 kts 102°
2026-04-23 13:47 43.39780 -146.41632 37212 ft 506 kts 102°
2026-04-23 13:47 43.38039 -146.32270 37212 ft 505 kts 103°
2026-04-23 13:48 43.36303 -146.22982 37222 ft 505 kts 103°
2026-04-23 13:48 43.34549 -146.13644 37228 ft 505 kts 103°
2026-04-23 13:49 43.32791 -146.04312 37229 ft 504 kts 103°
2026-04-23 13:49 43.31021 -145.94986 37230 ft 505 kts 103°
2026-04-23 13:50 43.29243 -145.85656 37235 ft 506 kts 103°
2026-04-23 13:50 43.27468 -145.76385 37254 ft 505 kts 103°
2026-04-23 13:51 43.25677 -145.67072 37274 ft 505 kts 103°
2026-04-23 13:51 43.23875 -145.57747 37279 ft 506 kts 103°
2026-04-23 13:52 43.22073 -145.48476 37276 ft 507 kts 103°
2026-04-23 13:52 43.20250 -145.39135 37278 ft 507 kts 103°
2026-04-23 13:53 43.18423 -145.29794 37278 ft 508 kts 103°
2026-04-23 13:53 43.16581 -145.20450 37277 ft 508 kts 103°
2026-04-23 13:54 43.14731 -145.11105 37303 ft 508 kts 103°
2026-04-23 13:54 43.12888 -145.01845 37340 ft 508 kts 103°
2026-04-23 13:55 43.11025 -144.92517 37342 ft 508 kts 103°
2026-04-23 13:55 43.09152 -144.83187 37340 ft 509 kts 103°
2026-04-23 13:56 43.07270 -144.73854 37342 ft 509 kts 104°
2026-04-23 13:56 43.05395 -144.64594 37340 ft 509 kts 104°
2026-04-23 13:57 43.03497 -144.55273 37340 ft 509 kts 104°
2026-04-23 13:57 43.01592 -144.45952 37341 ft 509 kts 104°
2026-04-23 13:58 42.99678 -144.36637 37340 ft 509 kts 104°
2026-04-23 13:58 42.97769 -144.27384 37340 ft 509 kts 104°
2026-04-23 13:59 42.95839 -144.18078 37340 ft 510 kts 104°
2026-04-23 13:59 42.93902 -144.08771 37340 ft 510 kts 104°
2026-04-23 14:00 42.92286 -144.01043 37341 ft 510 kts 104°
2026-04-23 14:00 42.90016 -143.90237 37340 ft 510 kts 104°
2026-04-23 14:01 42.88052 -143.80939 37340 ft 510 kts 104°
2026-04-23 14:01 42.86083 -143.71638 37341 ft 511 kts 104°
2026-04-23 14:02 42.84100 -143.62332 37342 ft 511 kts 104°
2026-04-23 14:02 42.82124 -143.53091 37339 ft 512 kts 104°
2026-04-23 14:03 42.80127 -143.43792 37344 ft 512 kts 104°
2026-04-23 14:03 42.78124 -143.34508 37339 ft 511 kts 104°
2026-04-23 14:04 42.76112 -143.25228 37340 ft 511 kts 105°
2026-04-23 14:04 42.74094 -143.15958 37342 ft 511 kts 105°
2026-04-23 14:05 42.72084 -143.06761 37340 ft 511 kts 105°
2026-04-23 14:05 42.70051 -142.97504 37341 ft 511 kts 105°
2026-04-23 14:06 42.68011 -142.88251 37340 ft 511 kts 105°
2026-04-23 14:06 42.65962 -142.79005 37340 ft 511 kts 105°
2026-04-23 14:07 42.63907 -142.69758 37343 ft 512 kts 105°
2026-04-23 14:07 42.60821 -142.55952 37340 ft 512 kts 105°
2026-04-23 14:08 42.58741 -142.46706 37341 ft 512 kts 105°
2026-04-23 14:08 42.56656 -142.37463 37341 ft 512 kts 105°
2026-04-23 14:09 42.54560 -142.28220 37340 ft 513 kts 105°
2026-04-23 14:09 42.52471 -142.19042 37340 ft 513 kts 105°
2026-04-23 14:10 42.50358 -142.09798 37341 ft 514 kts 105°
2026-04-23 14:10 42.48236 -142.00553 37342 ft 514 kts 105°
2026-04-23 14:11 42.46106 -141.91312 37341 ft 514 kts 106°
2026-04-23 14:11 42.43981 -141.82137 37342 ft 514 kts 106°
2026-04-23 14:12 42.41835 -141.72906 37341 ft 514 kts 106°
2026-04-23 14:12 42.39685 -141.63688 37342 ft 514 kts 106°
2026-04-23 14:13 42.37526 -141.54477 37338 ft 513 kts 106°
2026-04-23 14:13 42.35377 -141.45339 37342 ft 513 kts 106°
2026-04-23 14:14 42.33205 -141.36153 37340 ft 513 kts 107°
2026-04-23 14:14 42.31028 -141.26974 37343 ft 513 kts 107°
2026-04-23 14:15 42.28845 -141.17809 37338 ft 512 kts 107°
2026-04-23 14:15 42.26658 -141.08663 37341 ft 512 kts 107°
2026-04-23 14:16 42.24480 -140.99592 37340 ft 511 kts 107°
2026-04-23 14:16 42.22283 -140.90481 37339 ft 510 kts 107°
2026-04-23 14:17 42.20083 -140.81387 37342 ft 510 kts 107°
2026-04-23 14:17 42.17874 -140.72302 37340 ft 510 kts 108°
2026-04-23 14:18 42.15677 -140.63294 37342 ft 509 kts 108°
2026-04-23 14:18 42.13460 -140.54236 37338 ft 509 kts 108°
2026-04-23 14:19 42.11236 -140.45190 37341 ft 509 kts 108°
2026-04-23 14:19 42.09006 -140.36154 37342 ft 508 kts 108°
2026-04-23 14:20 42.06788 -140.27194 37340 ft 508 kts 108°
2026-04-23 14:20 42.04545 -140.18178 37342 ft 508 kts 108°
2026-04-23 14:21 42.02296 -140.09170 37340 ft 508 kts 108°
2026-04-23 14:21 42.00041 -140.00163 37341 ft 508 kts 109°
2026-04-23 14:22 41.97823 -139.91206 37338 ft 508 kts 108°
2026-04-23 14:22 41.95612 -139.82194 37341 ft 508 kts 108°
2026-04-23 14:23 41.93392 -139.73179 37338 ft 509 kts 108°
2026-04-23 14:23 41.91159 -139.64162 37343 ft 509 kts 108°
2026-04-23 14:24 41.88911 -139.55145 37360 ft 509 kts 108°
2026-04-23 14:24 41.86671 -139.46187 37383 ft 510 kts 109°
2026-04-23 14:25 41.84407 -139.37164 37374 ft 511 kts 109°
2026-04-23 14:25 41.82136 -139.28138 37355 ft 511 kts 109°
2026-04-23 14:26 41.79856 -139.19119 37363 ft 511 kts 109°
2026-04-23 14:26 41.77583 -139.10166 37365 ft 511 kts 109°
2026-04-23 14:27 41.75288 -139.01152 37370 ft 511 kts 109°
2026-04-23 14:27 41.72985 -138.92146 37349 ft 511 kts 109°
2026-04-23 14:28 41.70674 -138.83141 37353 ft 512 kts 109°
2026-04-23 14:28 41.68372 -138.74203 37353 ft 512 kts 109°
2026-04-23 14:29 41.66045 -138.65215 37368 ft 511 kts 110°
2026-04-23 14:29 41.63717 -138.56238 37370 ft 511 kts 110°
2026-04-23 14:30 41.61383 -138.47265 37368 ft 511 kts 110°
2026-04-23 14:30 41.59039 -138.38306 37355 ft 511 kts 110°
2026-04-23 14:31 41.56704 -138.29413 37369 ft 511 kts 110°
2026-04-23 14:31 41.54347 -138.20471 37362 ft 511 kts 110°
2026-04-23 14:32 41.51987 -138.11540 37363 ft 510 kts 110°
2026-04-23 14:32 41.49619 -138.02613 37366 ft 510 kts 110°
2026-04-23 14:33 41.47258 -137.93750 37352 ft 511 kts 110°
2026-04-23 14:33 41.44875 -137.84836 37360 ft 511 kts 110°
2026-04-23 14:34 41.42486 -137.75923 37354 ft 511 kts 110°
2026-04-23 14:34 41.40086 -137.67012 37358 ft 511 kts 110°
2026-04-23 14:35 41.37697 -137.58170 37356 ft 511 kts 110°
2026-04-23 14:35 41.35284 -137.49272 37341 ft 511 kts 111°
2026-04-23 14:36 41.32862 -137.40368 37309 ft 512 kts 111°
2026-04-23 14:36 41.30432 -137.31469 37302 ft 511 kts 111°
2026-04-23 14:37 41.28014 -137.22646 37287 ft 511 kts 111°
2026-04-23 14:37 41.25573 -137.13771 37286 ft 511 kts 111°
2026-04-23 14:38 41.23124 -137.04904 37285 ft 511 kts 111°
2026-04-23 14:38 41.20671 -136.96043 37286 ft 511 kts 111°
2026-04-23 14:39 41.18230 -136.87255 37287 ft 511 kts 111°
2026-04-23 14:39 41.15762 -136.78410 37287 ft 511 kts 111°
2026-04-23 14:40 41.13285 -136.69560 37286 ft 512 kts 111°
2026-04-23 14:40 41.10799 -136.60717 37286 ft 512 kts 111°
2026-04-23 14:41 41.08326 -136.51936 37285 ft 511 kts 111°
2026-04-23 14:41 41.05831 -136.43112 37284 ft 511 kts 111°
2026-04-23 14:42 41.03329 -136.34294 37286 ft 511 kts 111°
2026-04-23 14:42 41.00819 -136.25481 37287 ft 512 kts 112°
2026-04-23 14:43 40.98299 -136.16669 37286 ft 512 kts 112°
2026-04-23 14:43 40.95790 -136.07921 37285 ft 512 kts 112°
2026-04-23 14:44 40.93258 -135.99119 37276 ft 511 kts 112°
2026-04-23 14:44 40.90723 -135.90338 37275 ft 511 kts 112°
2026-04-23 14:45 40.88180 -135.81554 37278 ft 512 kts 112°
2026-04-23 14:45 40.85627 -135.72771 37276 ft 512 kts 112°
2026-04-23 14:46 40.83083 -135.64047 37280 ft 513 kts 112°
2026-04-23 14:46 40.80512 -135.55256 37288 ft 513 kts 112°
2026-04-23 14:47 40.77929 -135.46468 37287 ft 514 kts 112°
2026-04-23 14:47 40.75340 -135.37678 37285 ft 514 kts 112°
2026-04-23 14:48 40.72760 -135.28951 37288 ft 514 kts 112°
2026-04-23 14:48 40.70156 -135.20168 37293 ft 514 kts 112°
2026-04-23 14:49 40.67546 -135.11391 37286 ft 515 kts 112°
2026-04-23 14:49 40.64925 -135.02615 37286 ft 515 kts 113°
2026-04-23 14:50 40.62316 -134.93906 37287 ft 515 kts 113°
2026-04-23 14:50 40.59684 -134.85147 37282 ft 514 kts 113°
2026-04-23 14:51 40.57049 -134.76395 37288 ft 515 kts 113°
2026-04-23 14:51 40.54400 -134.67645 37285 ft 515 kts 113°
2026-04-23 14:52 40.51763 -134.58965 37286 ft 515 kts 113°
2026-04-23 14:52 40.49102 -134.50228 37286 ft 515 kts 113°
2026-04-23 14:53 40.46436 -134.41497 37287 ft 515 kts 113°
2026-04-23 14:53 40.43762 -134.32771 37286 ft 515 kts 113°
2026-04-23 14:54 40.41080 -134.24051 37287 ft 515 kts 113°
2026-04-23 14:54 40.38411 -134.15394 37285 ft 515 kts 114°
2026-04-23 14:55 40.35717 -134.06684 37283 ft 515 kts 114°
2026-04-23 14:55 40.33015 -133.97989 37285 ft 515 kts 114°
2026-04-23 14:56 40.30769 -133.90767 37285 ft 515 kts 114°
2026-04-23 14:56 40.27614 -133.80674 37286 ft 515 kts 114°
2026-04-23 14:57 40.24893 -133.71993 37285 ft 515 kts 114°
2026-04-23 14:57 40.22628 -133.64780 37285 ft 515 kts 114°
2026-04-23 14:58 40.19895 -133.56114 37285 ft 515 kts 114°
2026-04-23 14:58 40.16713 -133.46055 37285 ft 515 kts 114°
2026-04-23 14:59 40.14410 -133.38803 37283 ft 516 kts 114°
2026-04-23 14:59 40.11207 -133.28744 37285 ft 516 kts 114°
2026-04-23 15:00 40.08908 -133.21544 37278 ft 517 kts 114°
2026-04-23 15:00 40.06131 -133.12872 37269 ft 518 kts 114°
2026-04-23 15:01 40.03348 -133.04204 37266 ft 518 kts 114°
2026-04-23 15:01 40.00553 -132.95538 37268 ft 518 kts 114°
2026-04-23 15:02 39.97768 -132.86926 37266 ft 519 kts 115°
2026-04-23 15:02 39.94958 -132.78264 37267 ft 519 kts 115°
2026-04-23 15:03 39.92139 -132.69596 37266 ft 520 kts 115°
2026-04-23 15:03 39.89311 -132.60926 37268 ft 520 kts 115°
2026-04-23 15:04 39.86492 -132.52316 37267 ft 521 kts 115°
2026-04-23 15:04 39.83647 -132.43644 37267 ft 521 kts 115°
2026-04-23 15:05 39.80792 -132.34984 37267 ft 521 kts 115°
2026-04-23 15:05 39.77933 -132.26331 37267 ft 521 kts 115°
2026-04-23 15:06 39.75086 -132.17743 37270 ft 521 kts 115°
2026-04-23 15:06 39.72220 -132.09118 37268 ft 519 kts 115°
2026-04-23 15:07 39.69360 -132.00538 37262 ft 517 kts 115°
2026-04-23 15:07 39.66504 -131.92000 37265 ft 515 kts 115°
2026-04-23 15:08 39.63668 -131.83544 37267 ft 514 kts 115°
2026-04-23 15:09 39.59377 -131.70800 37269 ft 514 kts 115°
2026-04-23 15:09 39.56504 -131.62299 37267 ft 516 kts 115°
2026-04-23 15:10 39.53620 -131.53789 37268 ft 516 kts 116°
2026-04-23 15:10 39.50723 -131.45273 37267 ft 517 kts 116°
2026-04-23 15:11 39.47838 -131.36812 37269 ft 518 kts 116°
2026-04-23 15:11 39.44922 -131.28284 37268 ft 518 kts 116°
2026-04-23 15:12 39.41998 -131.19759 37268 ft 519 kts 116°
2026-04-23 15:12 39.39063 -131.11233 37267 ft 519 kts 116°
2026-04-23 15:13 39.36139 -131.02759 37266 ft 520 kts 116°
2026-04-23 15:13 39.33185 -130.94222 37258 ft 521 kts 116°
2026-04-23 15:14 39.30222 -130.85687 37258 ft 521 kts 116°
2026-04-23 15:14 39.27254 -130.77157 37257 ft 521 kts 116°
2026-04-23 15:15 39.24302 -130.68693 37256 ft 521 kts 117°
2026-04-23 15:15 39.21318 -130.60178 37260 ft 521 kts 117°
2026-04-23 15:16 39.18325 -130.51658 37256 ft 522 kts 117°
2026-04-23 15:16 39.15324 -130.43138 37260 ft 522 kts 117°
2026-04-23 15:17 39.12337 -130.34683 37258 ft 522 kts 117°
2026-04-23 15:17 39.09326 -130.26179 37258 ft 522 kts 117°
2026-04-23 15:18 39.06305 -130.17675 37258 ft 522 kts 117°
2026-04-23 15:18 39.03280 -130.09183 37259 ft 522 kts 117°
2026-04-23 15:19 39.00395 -130.00684 37258 ft 523 kts 112°
2026-04-23 15:19 38.98494 -129.91632 37261 ft 526 kts 103°
2026-04-23 15:20 38.97034 -129.82398 37260 ft 528 kts 103°
2026-04-23 15:20 38.95552 -129.73152 37259 ft 529 kts 104°
2026-04-23 15:21 38.94034 -129.63970 37260 ft 530 kts 104°
2026-04-23 15:21 38.92478 -129.54722 37259 ft 530 kts 104°
2026-04-23 15:22 38.90913 -129.45464 37258 ft 531 kts 104°
2026-04-23 15:22 38.89343 -129.36205 37257 ft 531 kts 104°
2026-04-23 15:23 38.87776 -129.26997 37259 ft 532 kts 104°
2026-04-23 15:23 38.86192 -129.17735 37258 ft 531 kts 104°
2026-04-23 15:24 38.84598 -129.08470 37257 ft 532 kts 104°
2026-04-23 15:24 38.82994 -128.99203 37259 ft 533 kts 104°
2026-04-23 15:25 38.81392 -128.89990 37258 ft 533 kts 104°
2026-04-23 15:25 38.79772 -128.80710 37259 ft 534 kts 104°
2026-04-23 15:26 38.78145 -128.71430 37250 ft 534 kts 105°
2026-04-23 15:26 38.76506 -128.62142 37247 ft 534 kts 105°
2026-04-23 15:27 38.74872 -128.52921 37251 ft 535 kts 105°
2026-04-23 15:27 38.73218 -128.43631 37249 ft 535 kts 105°
2026-04-23 15:28 38.71554 -128.34339 37249 ft 536 kts 105°
2026-04-23 15:28 38.69881 -128.25042 37249 ft 536 kts 105°
2026-04-23 15:29 38.68212 -128.15806 37249 ft 536 kts 105°
2026-04-23 15:29 38.66524 -128.06507 37241 ft 537 kts 105°
2026-04-23 15:30 38.64823 -127.97196 37215 ft 537 kts 105°
2026-04-23 15:30 38.63115 -127.87885 37210 ft 538 kts 105°
2026-04-23 15:31 38.61411 -127.78626 37214 ft 539 kts 105°
2026-04-23 15:31 38.59686 -127.69306 37213 ft 539 kts 105°
2026-04-23 15:32 38.57951 -127.59977 37219 ft 539 kts 105°
2026-04-23 15:32 38.56208 -127.50655 37222 ft 540 kts 105°
2026-04-23 15:33 38.54468 -127.41384 37221 ft 540 kts 106°
2026-04-23 15:33 38.52708 -127.32052 37221 ft 541 kts 106°
2026-04-23 15:34 38.50939 -127.22719 37225 ft 541 kts 106°
2026-04-23 15:34 38.49160 -127.13377 37221 ft 542 kts 106°
2026-04-23 15:35 38.47386 -127.04094 37222 ft 543 kts 106°
2026-04-23 15:35 38.45305 -126.94856 37226 ft 541 kts 111°
2026-04-23 15:36 38.42819 -126.85803 37224 ft 541 kts 112°
2026-04-23 15:36 38.40305 -126.76755 37221 ft 541 kts 112°
2026-04-23 15:37 38.37828 -126.67756 37220 ft 542 kts 112°
2026-04-23 15:37 38.35348 -126.58694 37222 ft 542 kts 112°
2026-04-23 15:38 38.32860 -126.49618 37221 ft 543 kts 112°
2026-04-23 15:38 38.30360 -126.40539 37223 ft 544 kts 112°
2026-04-23 15:39 38.27861 -126.31508 37216 ft 545 kts 112°
2026-04-23 15:39 38.25331 -126.22396 37212 ft 546 kts 112°
2026-04-23 15:40 38.22791 -126.13280 37212 ft 547 kts 112°
2026-04-23 15:40 38.20241 -126.04158 37212 ft 548 kts 112°
2026-04-23 15:41 38.17700 -125.95096 37211 ft 548 kts 112°
2026-04-23 15:41 38.15131 -125.85971 37212 ft 549 kts 112°
2026-04-23 15:42 38.12554 -125.76842 37212 ft 549 kts 112°
2026-04-23 15:42 38.09970 -125.67724 37212 ft 549 kts 112°
2026-04-23 15:43 38.07377 -125.58610 37212 ft 549 kts 112°
2026-04-23 15:43 38.04795 -125.49564 37212 ft 549 kts 113°
2026-04-23 15:44 38.02192 -125.40467 37212 ft 548 kts 112°
2026-04-23 15:44 37.99581 -125.31383 37213 ft 548 kts 113°
2026-04-23 15:45 37.96964 -125.22303 37212 ft 548 kts 113°
2026-04-23 15:45 37.94357 -125.13296 37212 ft 548 kts 113°
2026-04-23 15:46 37.91725 -125.04227 37213 ft 549 kts 113°
2026-04-23 15:46 37.89083 -124.95154 37211 ft 549 kts 113°
2026-04-23 15:47 37.86433 -124.86080 37213 ft 550 kts 113°
2026-04-23 15:47 37.83790 -124.77068 37212 ft 550 kts 113°
2026-04-23 15:48 37.81117 -124.67987 37215 ft 551 kts 113°
2026-04-23 15:48 37.78437 -124.58899 37208 ft 552 kts 113°
2026-04-23 15:49 37.75746 -124.49809 37213 ft 553 kts 114°
2026-04-23 15:49 37.73044 -124.40713 37211 ft 553 kts 113°
2026-04-23 15:50 37.70353 -124.31680 37212 ft 554 kts 113°
2026-04-23 15:50 37.67632 -124.22581 37213 ft 554 kts 114°
2026-04-23 15:51 37.64901 -124.13484 37203 ft 555 kts 114°
2026-04-23 15:51 37.62177 -124.04437 37214 ft 556 kts 114°
2026-04-23 15:52 37.59423 -123.95318 37213 ft 557 kts 114°
2026-04-23 15:52 37.56659 -123.86191 37213 ft 558 kts 114°
2026-04-23 15:53 37.53884 -123.77065 37211 ft 558 kts 114°
2026-04-23 15:53 37.51102 -123.67946 37207 ft 558 kts 114°
2026-04-23 15:54 37.48334 -123.58894 37202 ft 558 kts 114°
2026-04-23 15:54 37.45539 -123.49788 37203 ft 557 kts 114°
2026-04-23 15:55 37.42739 -123.40699 37203 ft 557 kts 114°
2026-04-23 15:55 37.39932 -123.31616 37204 ft 557 kts 114°
2026-04-23 15:56 37.37140 -123.22607 37203 ft 556 kts 114°
2026-04-23 15:56 37.34327 -123.13554 37203 ft 556 kts 114°
2026-04-23 15:57 37.31506 -123.04511 37204 ft 556 kts 114°
2026-04-23 15:57 37.28680 -122.95475 37201 ft 555 kts 114°
2026-04-23 15:58 37.25147 -122.86951 37205 ft 547 kts 129°
2026-04-23 15:58 37.20341 -122.79755 37200 ft 537 kts 143°
2026-04-23 15:59 37.14818 -122.73503 37208 ft 535 kts 144°
2026-04-23 15:59 37.09273 -122.67259 37203 ft 536 kts 144°
2026-04-23 16:00 37.03755 -122.60959 37202 ft 537 kts 143°
2026-04-23 16:00 36.98285 -122.54682 37204 ft 537 kts 143°
2026-04-23 16:01 36.92788 -122.48384 37203 ft 536 kts 143°
2026-04-23 16:01 36.87285 -122.42100 37202 ft 536 kts 143°
2026-04-23 16:02 36.81784 -122.35840 37201 ft 535 kts 143°
2026-04-23 16:02 36.76314 -122.29621 37200 ft 534 kts 143°
2026-04-23 16:03 36.70825 -122.23391 37199 ft 534 kts 144°
2026-04-23 16:03 36.65335 -122.17174 37194 ft 533 kts 144°
2026-04-23 16:04 36.59854 -122.10983 37197 ft 532 kts 144°
2026-04-23 16:04 36.54411 -122.04846 37191 ft 531 kts 144°
2026-04-23 16:05 36.49826 -121.99684 37196 ft 531 kts 144°
2026-04-23 16:05 36.43460 -121.92532 37195 ft 531 kts 144°
2026-04-23 16:06 36.37971 -121.86381 37180 ft 532 kts 144°
2026-04-23 16:06 36.32487 -121.80242 37174 ft 531 kts 143°
2026-04-23 16:07 36.27047 -121.74164 37181 ft 531 kts 144°
2026-04-23 16:07 36.21563 -121.68053 37183 ft 531 kts 144°
2026-04-23 16:08 36.15900 -121.62262 37179 ft 523 kts 152°
2026-04-23 16:08 36.09807 -121.57414 37184 ft 520 kts 154°
2026-04-23 16:09 36.03749 -121.52616 37192 ft 522 kts 154°
2026-04-23 16:09 35.97659 -121.47730 37213 ft 523 kts 154°
2026-04-23 16:10 35.91574 -121.42828 37210 ft 521 kts 153°
2026-04-23 16:10 35.85505 -121.37952 37214 ft 520 kts 154°
2026-04-23 16:11 35.79443 -121.33097 37219 ft 519 kts 154°
2026-04-23 16:11 35.73418 -121.28285 37209 ft 519 kts 154°
2026-04-23 16:12 35.67361 -121.23453 37212 ft 518 kts 154°
2026-04-23 16:12 35.61316 -121.18638 37209 ft 518 kts 154°
2026-04-23 16:13 35.55272 -121.13832 37201 ft 517 kts 154°
2026-04-23 16:13 35.49594 -121.08438 37199 ft 529 kts 139°
2026-04-23 16:13 35.47250 -121.04920 37201 ft 537 kts 129°
2026-04-23 16:14 35.43800 -120.96727 37210 ft 544 kts 117°
2026-04-23 16:14 35.40743 -120.88230 37199 ft 546 kts 118°
2026-04-23 16:15 35.37641 -120.79795 37182 ft 547 kts 118°
2026-04-23 16:15 35.34459 -120.71313 37188 ft 549 kts 119°
2026-04-23 16:16 35.31250 -120.62825 37168 ft 550 kts 119°
2026-04-23 16:16 35.28032 -120.54323 37157 ft 551 kts 119°
2026-04-23 16:17 35.24812 -120.45825 37157 ft 550 kts 119°
2026-04-23 16:17 35.21617 -120.37401 37149 ft 549 kts 119°
2026-04-23 16:18 35.18396 -120.28940 37146 ft 548 kts 119°
2026-04-23 16:18 35.15174 -120.20504 37150 ft 547 kts 119°
2026-04-23 16:19 35.11949 -120.12082 37140 ft 547 kts 119°
2026-04-23 16:19 35.08744 -120.03733 37140 ft 546 kts 120°
2026-04-23 16:20 35.05514 -119.95340 37134 ft 547 kts 120°
2026-04-23 16:20 35.02269 -119.86934 37125 ft 548 kts 120°
2026-04-23 16:21 34.99018 -119.78528 37135 ft 549 kts 120°
2026-04-23 16:21 34.95776 -119.70171 37122 ft 544 kts 120°
2026-04-23 16:22 34.94189 -119.66065 37115 ft 526 kts 121°
2026-04-23 16:22 34.92653 -119.62094 37110 ft 510 kts 121°
2026-04-23 16:22 34.91161 -119.58248 36876 ft 501 kts 121°
2026-04-23 16:22 34.89673 -119.54435 36469 ft 496 kts 121°
2026-04-23 16:23 34.88196 -119.50661 36081 ft 491 kts 121°
2026-04-23 16:23 34.86734 -119.46930 35682 ft 487 kts 121°
2026-04-23 16:23 34.85280 -119.43225 35277 ft 483 kts 121°
2026-04-23 16:23 34.83849 -119.39586 34583 ft 486 kts 121°
2026-04-23 16:24 34.82364 -119.35822 33327 ft 502 kts 121°
2026-04-23 16:24 34.80826 -119.31934 32030 ft 517 kts 120°
2026-04-23 16:24 34.79264 -119.27968 31191 ft 521 kts 120°
2026-04-23 16:24 34.77704 -119.23993 30448 ft 520 kts 119°
2026-04-23 16:25 34.76148 -119.20028 29783 ft 518 kts 119°
2026-04-23 16:25 34.74602 -119.16096 29205 ft 513 kts 119°
2026-04-23 16:25 34.73069 -119.12203 28655 ft 508 kts 119°
2026-04-23 16:25 34.71548 -119.08350 28080 ft 504 kts 119°
2026-04-23 16:26 34.70058 -119.04579 27510 ft 500 kts 119°
2026-04-23 16:26 34.68556 -119.00788 26933 ft 495 kts 119°
2026-04-23 16:26 34.67065 -118.97033 26377 ft 492 kts 119°
2026-04-23 16:26 34.65585 -118.93307 25810 ft 488 kts 119°
2026-04-23 16:27 34.64116 -118.89612 25241 ft 484 kts 119°
2026-04-23 16:27 34.62657 -118.85951 24674 ft 480 kts 119°
2026-04-23 16:27 34.61206 -118.82318 24131 ft 476 kts 119°
2026-04-23 16:27 34.59767 -118.78715 23584 ft 473 kts 119°
2026-04-23 16:28 34.58337 -118.75142 23098 ft 468 kts 119°
2026-04-23 16:28 34.56923 -118.71606 22581 ft 464 kts 118°
2026-04-23 16:28 34.55537 -118.68139 22080 ft 461 kts 118°
2026-04-23 16:28 34.54142 -118.64655 21541 ft 458 kts 118°
2026-04-23 16:29 34.52758 -118.61200 21027 ft 454 kts 118°
2026-04-23 16:29 34.51381 -118.57771 20529 ft 451 kts 118°
2026-04-23 16:29 34.50014 -118.54369 20036 ft 447 kts 118°
2026-04-23 16:29 34.48653 -118.50992 19533 ft 444 kts 118°
2026-04-23 16:30 34.47303 -118.47644 19047 ft 441 kts 118°
2026-04-23 16:30 34.45961 -118.44316 18548 ft 438 kts 118°
2026-04-23 16:30 34.44626 -118.41009 18051 ft 436 kts 118°
2026-04-23 16:30 34.43318 -118.37769 17576 ft 433 kts 118°
2026-04-23 16:31 34.41999 -118.34507 17121 ft 429 kts 117°
2026-04-23 16:31 34.40696 -118.31286 16658 ft 417 kts 118°
2026-04-23 16:31 34.39432 -118.28160 15886 ft 416 kts 118°
2026-04-23 16:31 34.38159 -118.25018 15331 ft 416 kts 117°
2026-04-23 16:32 34.36891 -118.21893 14937 ft 411 kts 117°
2026-04-23 16:32 34.35638 -118.18813 14582 ft 405 kts 118°
2026-04-23 16:32 34.34398 -118.15768 14160 ft 401 kts 117°
2026-04-23 16:32 34.33183 -118.12788 13673 ft 399 kts 117°
2026-04-23 16:33 34.31960 -118.09781 13223 ft 397 kts 117°
2026-04-23 16:33 34.30748 -118.06803 12839 ft 392 kts 117°
2026-04-23 16:33 34.29547 -118.03859 12456 ft 389 kts 117°
2026-04-23 16:33 34.28362 -118.00959 12274 ft 379 kts 117°
2026-04-23 16:34 34.27212 -117.98146 12192 ft 367 kts 117°
2026-04-23 16:34 34.26099 -117.95431 12098 ft 354 kts 117°
2026-04-23 16:34 34.25024 -117.92809 12031 ft 342 kts 117°
2026-04-23 16:34 34.23989 -117.90282 11979 ft 328 kts 116°
2026-04-23 16:35 34.23011 -117.87896 11980 ft 316 kts 117°
2026-04-23 16:35 34.22021 -117.85479 11997 ft 328 kts 116°
2026-04-23 16:35 34.21000 -117.82979 12015 ft 334 kts 117°
2026-04-23 16:35 34.19958 -117.80456 11978 ft 336 kts 117°
2026-04-23 16:36 34.18919 -117.77936 12013 ft 334 kts 116°
2026-04-23 16:36 34.17893 -117.75423 12005 ft 333 kts 116°
2026-04-23 16:36 34.16862 -117.72914 12000 ft 334 kts 117°
2026-04-23 16:36 34.15820 -117.70405 11987 ft 334 kts 117°
2026-04-23 16:37 34.14787 -117.67899 11997 ft 333 kts 117°
2026-04-23 16:37 34.13748 -117.65397 11976 ft 331 kts 119°
2026-04-23 16:37 34.12367 -117.63278 11981 ft 325 kts 143°
2026-04-23 16:37 34.10402 -117.62024 11979 ft 319 kts 168°
2026-04-23 16:38 34.08229 -117.61776 11981 ft 312 kts 191°
2026-04-23 16:38 34.06141 -117.62446 11596 ft 312 kts 211°
2026-04-23 16:38 34.04416 -117.63968 11236 ft 305 kts 229°
2026-04-23 16:38 34.03184 -117.66002 10834 ft 298 kts 247°
2026-04-23 16:39 34.02509 -117.68335 10502 ft 293 kts 255°
2026-04-23 16:39 34.02024 -117.70658 10104 ft 277 kts 263°
2026-04-23 16:39 34.01805 -117.72954 9816 ft 279 kts 265°
2026-04-23 16:39 34.01619 -117.75275 9475 ft 284 kts 265°
2026-04-23 16:40 34.01418 -117.77656 9097 ft 286 kts 264°
2026-04-23 16:40 34.01204 -117.80039 8766 ft 286 kts 264°
2026-04-23 16:40 34.00978 -117.82416 8404 ft 281 kts 264°
2026-04-23 16:40 34.00758 -117.84683 8045 ft 264 kts 263°
2026-04-23 16:41 34.00550 -117.86814 7727 ft 248 kts 263°
2026-04-23 16:41 34.00357 -117.88803 7449 ft 230 kts 263°
2026-04-23 16:41 34.00191 -117.90639 7221 ft 213 kts 265°
2026-04-23 16:41 34.00063 -117.92364 6940 ft 202 kts 265°
2026-04-23 16:42 33.99923 -117.94025 6722 ft 204 kts 264°
2026-04-23 16:42 33.99763 -117.95743 6466 ft 208 kts 263°
2026-04-23 16:42 33.99592 -117.97479 6242 ft 208 kts 263°
2026-04-23 16:42 33.99415 -117.99210 5968 ft 208 kts 263°
2026-04-23 16:43 33.99239 -118.00932 5662 ft 206 kts 263°
2026-04-23 16:43 33.99065 -118.02635 5393 ft 203 kts 263°
2026-04-23 16:43 33.98894 -118.04300 5149 ft 198 kts 263°
2026-04-23 16:43 33.98727 -118.05936 4887 ft 195 kts 263°
2026-04-23 16:44 33.98565 -118.07529 4649 ft 190 kts 263°
2026-04-23 16:44 33.98405 -118.09100 4395 ft 192 kts 263°
2026-04-23 16:44 33.98238 -118.10712 4154 ft 195 kts 263°
2026-04-23 16:44 33.98073 -118.12330 3929 ft 193 kts 263°
2026-04-23 16:45 33.97908 -118.13919 3734 ft 190 kts 263°
2026-04-23 16:45 33.97751 -118.15456 3553 ft 187 kts 263°
2026-04-23 16:45 33.97593 -118.17005 3401 ft 186 kts 263°
2026-04-23 16:45 33.97432 -118.18563 3219 ft 188 kts 263°
2026-04-23 16:46 33.97271 -118.20128 3104 ft 188 kts 263°
2026-04-23 16:46 33.97112 -118.21686 3034 ft 187 kts 263°
2026-04-23 16:46 33.96956 -118.23198 2831 ft 180 kts 262°
2026-04-23 16:46 33.96807 -118.24642 2620 ft 169 kts 262°
2026-04-23 16:47 33.96665 -118.26026 2427 ft 165 kts 263°
2026-04-23 16:47 33.96524 -118.27407 2187 ft 166 kts 262°
2026-04-23 16:47 33.96383 -118.28782 1962 ft 165 kts 262°
2026-04-23 16:47 33.96244 -118.30138 1728 ft 159 kts 262°
2026-04-23 16:48 33.96113 -118.31413 1515 ft 149 kts 261°
2026-04-23 16:48 33.95988 -118.32623 1338 ft 144 kts 263°
2026-04-23 16:48 33.95864 -118.33837 1162 ft 146 kts 265°
2026-04-23 16:48 33.95740 -118.35042 960 ft 144 kts 265°
2026-04-23 16:49 33.95659 -118.35830 833 ft 143 kts 265°
2026-04-23 16:49 33.95497 -118.37400 582 ft 142 kts 265°
2026-04-23 16:49 33.95375 -118.38582 384 ft 141 kts 265°
2026-04-23 16:49 33.95258 -118.39755 191 ft 142 kts 265°
2026-04-23 16:50 33.95137 -118.40914 99 ft 133 kts 264°
2026-04-23 16:50 33.95040 -118.41873 99 ft 94 kts 263°
2026-04-23 16:50 33.94983 -118.42471 97 ft 50 kts 263°
2026-04-23 16:50 33.94945 -118.42807 99 ft 38 kts 262°
2026-04-23 16:51 33.94912 -118.43054 98 ft 26 kts 244°
2026-04-23 16:51 33.94813 -118.43082 100 ft 9 kts 174°
2026-04-23 16:51 33.94749 -118.43073 103 ft 9 kts 173°
2026-04-23 16:51 33.94689 -118.43046 103 ft 10 kts 142°
2026-04-23 16:52 33.94634 -118.42977 101 ft 13 kts 129°
2026-04-23 16:52 33.94622 -118.42866 100 ft 14 kts 86°
2026-04-23 16:52 33.94630 -118.42750 100 ft 14 kts 85°
2026-04-23 16:52 33.94642 -118.42633 99 ft 14 kts 82°
2026-04-23 16:53 33.94654 -118.42517 99 ft 14 kts 83°
2026-04-23 16:53 33.94665 -118.42402 101 ft 14 kts 83°
2026-04-23 16:53 33.94677 -118.42285 99 ft 14 kts 83°
2026-04-23 16:53 33.94689 -118.42169 98 ft 14 kts 83°
2026-04-23 16:54 33.94701 -118.42053 98 ft 14 kts 83°
2026-04-23 16:54 33.94713 -118.41937 98 ft 14 kts 83°
2026-04-23 16:54 33.94725 -118.41821 98 ft 14 kts 83°
2026-04-23 16:54 33.94736 -118.41704 98 ft 14 kts 83°
2026-04-23 16:55 33.94748 -118.41588 98 ft 14 kts 83°
2026-04-23 16:55 33.94759 -118.41472 99 ft 14 kts 83°
2026-04-23 16:55 33.94719 -118.41384 98 ft 14 kts 173°
2026-04-23 16:55 33.94623 -118.41377 98 ft 6 kts 175°
2026-04-23 16:56 33.94587 -118.41381 98 ft 3 kts 203°
2026-04-23 16:56 33.94578 -118.41403 98 ft 3 kts 259°
2026-04-23 16:56 33.94574 -118.41438 98 ft 5 kts 263°
2026-04-23 16:56 33.94573 -118.41449 99 ft 1 kts 263°
2026-04-23 16:57 33.94572 -118.41463 98 ft 2 kts 263°
2026-04-23 16:57 33.94570 -118.41475 98 ft 0 kts 263°